| time (UTC) | temp F | wind direction | speed knots | gust knots | rain 1hr in | rain 24hr in | rain mn in | humidity % | barometer mb |
| 20260505191944 | 67 | 169 | 6.1 | 14.8 | 0.06 | 0.06 | 0.06 | 27 | 1002.3 |
| 20260505191859 | 68 | 204 | 7.0 | 14.8 | 0.06 | 0.06 | 0.06 | 26 | 1002.2 |
| 20260505191822 | 68 | 188 | 7.0 | 14.8 | 0.06 | 0.06 | 0.06 | 28 | 1002.2 |
| 20260505191624 | 69 | 243 | 6.1 | 12.2 | 0.06 | 0.06 | 0.06 | 34 | 1002.3 |
| 20260505191525 | 69 | 172 | 7.0 | 12.2 | 0.05 | 0.05 | 0.05 | 34 | 1002.2 |
| 20260505191427 | 70 | 197 | 6.1 | 12.2 | 0.04 | 0.04 | 0.04 | 36 | 1002.3 |
| 20260505191335 | 70 | 259 | 6.1 | 12.2 | 0.03 | 0.03 | 0.03 | 36 | 1002.3 |
| 20260505191219 | 70 | 270 | 5.2 | 11.3 | 0.01 | 0.01 | 0.01 | 41 | 1002.6 |
| 20260505191132 | 70 | 319 | 4.3 | 9.6 | 0.01 | 0.01 | 0.01 | 41 | 1002.2 |
| 20260505191054 | 70 | 269 | 4.3 | 9.6 | 0.01 | 0.01 | 0.01 | 41 | 1002.2 |
| 20260505190925 | 70 | 317 | 3.5 | 8.7 | 0.01 | 0.01 | 0.01 | 39 | 1002.1 |
| 20260505190818 | 69 | 318 | 4.3 | 7.8 | 0.01 | 0.01 | 0.01 | 39 | 1002.1 |
| 20260505190626 | 69 | 250 | 3.5 | 7.8 | 0.01 | 0.01 | 0.01 | 34 | 1001.9 |
| 20260505190551 | 69 | 291 | 2.6 | 5.2 | 0.01 | 0.01 | 0.01 | 34 | 1001.9 |
| 20260505190504 | 69 | 301 | 1.7 | 6.1 | 0.01 | 0.01 | 0.01 | 28 | 1001.6 |
| 20260505190316 | 69 | 138 | 0.9 | 3.5 | 0.01 | 0.01 | 0.01 | 24 | 1001.4 |
| 20260505190227 | 69 | 147 | 1.7 | 3.5 | 0.01 | 0.01 | 0.01 | 24 | 1001.3 |
| 20260505190120 | 69 | 355 | 1.7 | 3.5 | 0.01 | 0.01 | 0.01 | 22 | 1001.1 |
| 20260505190021 | 69 | 34 | 1.7 | 3.5 | 0.01 | 0.01 | 0.01 | 19 | 1001.1 |
| 20260505185823 | 70 | 105 | 0.9 | 1.7 | 0.01 | 0.01 | 0.01 | 5 | 1001.0 |
| 20260505185734 | 70 | 105 | 0.9 | 3.5 | 0.01 | 0.01 | 0.01 | 2 | 1000.9 |
| 20260505185638 | 70 | 105 | 0.0 | 5.2 | 0.01 | 0.01 | 0.01 | 8 | 1000.9 |
| 20260505185600 | 70 | 105 | 0.0 | 5.2 | 0.01 | 0.01 | 0.01 | 8 | 1000.9 |
| 20260505185518 | 70 | 105 | 0.9 | 5.2 | 0.01 | 0.01 | 0.01 | 13 | 1000.8 |
| 20260505185324 | 70 | 105 | 0.0 | 5.2 | 0.01 | 0.01 | 0.01 | 20 | 1000.8 |
| 20260505185239 | 70 | 105 | 0.0 | 5.2 | 0.01 | 0.01 | 0.01 | 23 | 1000.7 |
| 20260505185108 | 70 | 105 | 0.9 | 5.2 | 0.01 | 0.01 | 0.01 | 26 | 1000.8 |
| 20260505185031 | 70 | 105 | 1.7 | 5.2 | 0.01 | 0.01 | 0.01 | 28 | 1000.8 |
| 20260505184833 | 71 | 98 | 1.7 | 7.8 | 0.01 | 0.01 | 0.01 | 28 | 1000.9 |
| 20260505184756 | 71 | 111 | 1.7 | 7.8 | 0.01 | 0.01 | 0.01 | 34 | 1000.9 |
| 20260505184639 | 71 | 77 | 2.6 | 7.8 | 0.01 | 0.01 | 0.01 | 42 | 1000.8 |
| 20260505184559 | 71 | 113 | 2.6 | 7.8 | 0.01 | 0.01 | 0.01 | 47 | 1000.9 |
| 20260505184422 | 71 | 231 | 2.6 | 14.8 | 0.01 | 0.01 | 0.01 | 47 | 1000.9 |
| 20260505184346 | 71 | 189 | 2.6 | 14.8 | 0.01 | 0.01 | 0.01 | 47 | 1000.9 |
| 20260505184312 | 71 | 212 | 1.7 | 14.8 | 0.01 | 0.01 | 0.01 | 47 | 1001.0 |
| 20260505184216 | 71 | 202 | 2.6 | 14.8 | 0.01 | 0.01 | 0.01 | 48 | 1001.0 |
| 20260505184139 | 71 | 203 | 3.5 | 14.8 | 0.01 | 0.01 | 0.01 | 49 | 1001.0 |
| 20260505184008 | 72 | 187 | 4.3 | 14.8 | 0.01 | 0.01 | 0.01 | 50 | 1001.1 |
| 20260505183924 | 72 | 213 | 5.2 | 14.8 | 0.01 | 0.01 | 0.01 | 50 | 1001.1 |
| 20260505183734 | 72 | 226 | 9.6 | 14.8 | 0.00 | 0.00 | 0.00 | 51 | 1001.3 |
| 20260505183629 | 73 | 196 | 11.3 | 15.6 | 0.00 | 0.00 | 0.00 | 50 | 1001.4 |
| 20260505183551 | 73 | 223 | 11.3 | 15.6 | 0.00 | 0.00 | 0.00 | 50 | 1001.4 |
| 20260505183506 | 74 | 181 | 9.6 | 15.6 | 0.00 | 0.00 | 0.00 | 50 | 1001.6 |
| 20260505183427 | 74 | 188 | 8.7 | 14.8 | 0.00 | 0.00 | 0.00 | 49 | 1001.5 |
| 20260505183226 | 75 | 191 | 9.6 | 13.9 | 0.00 | 0.00 | 0.00 | 47 | 1001.3 |
| 20260505183148 | 75 | 196 | 8.7 | 13.9 | 0.00 | 0.00 | 0.00 | 47 | 1001.3 |
| 20260505183017 | 75 | 174 | 7.8 | 13.9 | 0.00 | 0.00 | 0.00 | 47 | 1001.1 |
| 20260505182931 | 76 | 162 | 7.0 | 13.9 | 0.00 | 0.00 | 0.00 | 48 | 1001.4 |
| 20260505182740 | 76 | 176 | 8.7 | 13.9 | 0.00 | 0.00 | 0.00 | 45 | 1001.0 |
| 20260505182654 | 76 | 148 | 7.8 | 13.9 | 0.00 | 0.00 | 0.00 | 45 | 1000.7 |
| 20260505182441 | 76 | 158 | 8.7 | 13.9 | 0.00 | 0.00 | 0.00 | 45 | 1000.7 |
| 20260505182406 | 76 | 211 | 9.6 | 13.9 | 0.00 | 0.00 | 0.00 | 45 | 1000.7 |
| 20260505182320 | 76 | 195 | 8.7 | 13.9 | 0.00 | 0.00 | 0.00 | 45 | 1000.6 |
| 20260505182131 | 76 | 194 | 6.1 | 13.0 | 0.00 | 0.00 | 0.00 | 45 | 1000.5 |
| 20260505182029 | 76 | 302 | 5.2 | 16.5 | 0.00 | 0.00 | 0.00 | 46 | 1000.5 |
| 20260505181953 | 76 | 207 | 6.1 | 16.5 | 0.00 | 0.00 | 0.00 | 46 | 1000.5 |
| 20260505181835 | 76 | 200 | 7.8 | 22.6 | 0.00 | 0.00 | 0.00 | 46 | 1000.6 |
| 20260505181759 | 76 | 163 | 8.7 | 22.6 | 0.00 | 0.00 | 0.00 | 45 | 1000.6 |
| 20260505181704 | 76 | 232 | 8.7 | 22.6 | 0.00 | 0.00 | 0.00 | 45 | 1000.6 |
| 20260505181627 | 76 | 178 | 7.8 | 22.6 | 0.00 | 0.00 | 0.00 | 45 | 1000.7 |
| 20260505181431 | 76 | 180 | 9.6 | 22.6 | 0.00 | 0.00 | 0.00 | 45 | 1000.8 |
| 20260505181334 | 76 | 186 | 12.2 | 22.6 | 0.00 | 0.00 | 0.00 | 45 | 1000.8 |
| 20260505181237 | 76 | 164 | 15.6 | 22.6 | 0.00 | 0.00 | 0.00 | 44 | 1000.8 |
| 20260505181203 | 76 | 171 | 14.8 | 22.6 | 0.00 | 0.00 | 0.00 | 44 | 1000.8 |
| 20260505181102 | 76 | 178 | 11.3 | 24.3 | 0.00 | 0.00 | 0.00 | 45 | 1000.7 |
| 20260505180934 | 76 | 219 | 7.8 | 17.4 | 0.00 | 0.00 | 0.00 | 45 | 1000.8 |
| 20260505180829 | 76 | 196 | 9.6 | 17.4 | 0.00 | 0.00 | 0.00 | 45 | 1000.7 |
| 20260505180614 | 76 | 226 | 9.6 | 20.9 | 0.00 | 0.00 | 0.00 | 44 | 1000.7 |
| 20260505180525 | 76 | 153 | 7.8 | 18.2 | 0.00 | 0.00 | 0.00 | 45 | 1000.7 |
| 20260505180428 | 76 | 175 | 8.7 | 20.9 | 0.00 | 0.00 | 0.00 | 45 | 1000.7 |
| 20260505180350 | 76 | 149 | 9.6 | 20.9 | 0.00 | 0.00 | 0.00 | 45 | 1000.7 |
| 20260505180310 | 76 | 203 | 10.4 | 20.9 | 0.00 | 0.00 | 0.00 | 44 | 1000.6 |
| 20260505180153 | 76 | 221 | 10.4 | 20.9 | 0.00 | 0.00 | 0.00 | 44 | 1000.6 |
| 20260505180119 | 76 | 224 | 11.3 | 20.9 | 0.00 | 0.00 | 0.00 | 45 | 1000.7 |
| 20260505175923 | 76 | 146 | 9.6 | 20.9 | 0.00 | 0.00 | 0.00 | 45 | 1000.8 |
| 20260505175824 | 76 | 132 | 12.2 | 20.9 | 0.00 | 0.00 | 0.00 | 44 | 1000.8 |
| 20260505175726 | 76 | 159 | 12.2 | 20.9 | 0.00 | 0.00 | 0.00 | 44 | 1000.7 |
| 20260505175648 | 76 | 177 | 12.2 | 20.9 | 0.00 | 0.00 | 0.00 | 44 | 1000.7 |
| 20260505175517 | 76 | 182 | 10.4 | 19.1 | 0.00 | 0.00 | 0.00 | 44 | 1000.7 |
| 20260505175431 | 76 | 128 | 9.6 | 21.7 | 0.00 | 0.00 | 0.00 | 44 | 1000.9 |
| 20260505175240 | 76 | 115 | 11.3 | 21.7 | 0.00 | 0.00 | 0.00 | 44 | 1001.0 |
| 20260505175134 | 76 | 178 | 12.2 | 21.7 | 0.00 | 0.00 | 0.00 | 44 | 1000.9 |
| 20260505175021 | 76 | 220 | 10.4 | 21.7 | 0.00 | 0.00 | 0.00 | 44 | 1000.9 |
| 20260505174945 | 76 | 160 | 10.4 | 21.7 | 0.00 | 0.00 | 0.00 | 44 | 1000.9 |
| 20260505174906 | 76 | 169 | 8.7 | 21.7 | 0.00 | 0.00 | 0.00 | 45 | 1000.8 |
| 20260505174716 | 76 | 161 | 9.6 | 21.7 | 0.00 | 0.00 | 0.00 | 44 | 1001.0 |
| 20260505174630 | 76 | 130 | 11.3 | 21.7 | 0.00 | 0.00 | 0.00 | 44 | 1001.1 |
| 20260505174440 | 76 | 192 | 13.0 | 25.2 | 0.00 | 0.00 | 0.00 | 43 | 1001.1 |
| 20260505174335 | 76 | 173 | 12.2 | 26.9 | 0.00 | 0.00 | 0.00 | 44 | 1001.2 |
| 20260505174258 | 76 | 170 | 10.4 | 26.9 | 0.00 | 0.00 | 0.00 | 44 | 1001.2 |
| 20260505174143 | 76 | 194 | 12.2 | 26.9 | 0.00 | 0.00 | 0.00 | 43 | 1001.0 |
| 20260505174110 | 76 | 164 | 12.2 | 26.9 | 0.00 | 0.00 | 0.00 | 43 | 1000.9 |
| 20260505174036 | 76 | 192 | 12.2 | 26.9 | 0.00 | 0.00 | 0.00 | 43 | 1000.9 |
| 20260505173918 | 76 | 155 | 12.2 | 26.9 | 0.00 | 0.00 | 0.00 | 44 | 1001.0 |
| 20260505173819 | 76 | 155 | 13.9 | 26.9 | 0.00 | 0.00 | 0.00 | 44 | 1001.1 |
| 20260505173621 | 76 | 188 | 14.8 | 26.9 | 0.00 | 0.00 | 0.00 | 43 | 1001.2 |
| 20260505173545 | 76 | 184 | 13.0 | 28.7 | 0.00 | 0.00 | 0.00 | 44 | 1001.2 |
| 20260505173429 | 76 | 155 | 11.3 | 20.9 | 0.00 | 0.00 | 0.00 | 44 | 1001.2 |
| 20260505173352 | 77 | 221 | 11.3 | 23.5 | 0.00 | 0.00 | 0.00 | 44 | 1001.2 |
| 20260505173133 | 77 | 171 | 12.2 | 23.5 | 0.00 | 0.00 | 0.00 | 43 | 1001.2 |
| 20260505173038 | 77 | 189 | 12.2 | 23.5 | 0.00 | 0.00 | 0.00 | 43 | 1001.2 |
| 20260505172940 | 77 | 169 | 13.0 | 23.5 | 0.00 | 0.00 | 0.00 | 44 | 1001.1 |
| 20260505172904 | 77 | 136 | 13.9 | 23.5 | 0.00 | 0.00 | 0.00 | 45 | 1001.1 |
| 20260505172824 | 77 | 139 | 13.9 | 23.5 | 0.00 | 0.00 | 0.00 | 44 | 1001.1 |
| 20260505172627 | 77 | 144 | 13.0 | 23.5 | 0.00 | 0.00 | 0.00 | 44 | 1001.1 |
| 20260505172549 | 77 | 237 | 12.2 | 24.3 | 0.00 | 0.00 | 0.00 | 44 | 1001.1 |
| 20260505172432 | 77 | 119 | 13.0 | 20.9 | 0.00 | 0.00 | 0.00 | 44 | 1001.3 |
| 20260505172356 | 77 | 189 | 13.0 | 23.5 | 0.00 | 0.00 | 0.00 | 43 | 1001.3 |
| 20260505172310 | 77 | 180 | 11.3 | 23.5 | 0.00 | 0.00 | 0.00 | 44 | 1001.2 |
| 20260505172131 | 77 | 199 | 11.3 | 23.5 | 0.00 | 0.00 | 0.00 | 44 | 1001.1 |
| 20260505172049 | 76 | 163 | 12.2 | 23.5 | 0.00 | 0.00 | 0.00 | 44 | 1001.1 |
| 20260505171857 | 76 | 168 | 11.3 | 26.1 | 0.00 | 0.00 | 0.00 | 44 | 1001.2 |
| 20260505171759 | 76 | 165 | 13.0 | 27.8 | 0.00 | 0.00 | 0.00 | 44 | 1001.2 |
| 20260505171625 | 76 | 138 | 14.8 | 27.8 | 0.00 | 0.00 | 0.00 | 43 | 1001.3 |
| 20260505171528 | 76 | 163 | 13.0 | 27.8 | 0.00 | 0.00 | 0.00 | 44 | 1001.3 |
| 20260505171429 | 76 | 191 | 12.2 | 27.8 | 0.00 | 0.00 | 0.00 | 44 | 1001.4 |
| 20260505171353 | 76 | 157 | 9.6 | 27.8 | 0.00 | 0.00 | 0.00 | 44 | 1001.4 |
| 20260505171237 | 76 | 218 | 10.4 | 27.8 | 0.00 | 0.00 | 0.00 | 46 | 1001.3 |
| 20260505171159 | 76 | 196 | 13.9 | 27.8 | 0.00 | 0.00 | 0.00 | 45 | 1001.2 |
| 20260505171026 | 76 | 150 | 14.8 | 27.8 | 0.00 | 0.00 | 0.00 | 45 | 1001.3 |
| 20260505170950 | 76 | 160 | 12.2 | 27.8 | 0.00 | 0.00 | 0.00 | 45 | 1001.3 |
| 20260505170904 | 76 | 177 | 7.8 | 18.2 | 0.00 | 0.00 | 0.00 | 45 | 1001.2 |
| 20260505170711 | 76 | 115 | 8.7 | 18.2 | 0.00 | 0.00 | 0.00 | 45 | 1001.2 |
| 20260505170634 | 76 | 186 | 9.6 | 18.2 | 0.00 | 0.00 | 0.00 | 45 | 1001.2 |
| 20260505170436 | 76 | 153 | 9.6 | 21.7 | 0.00 | 0.00 | 0.00 | 45 | 1001.4 |
| 20260505170400 | 76 | 174 | 9.6 | 21.7 | 0.00 | 0.00 | 0.00 | 45 | 1001.4 |
| 20260505170224 | 76 | 148 | 9.6 | 21.7 | 0.00 | 0.00 | 0.00 | 45 | 1001.3 |
| 20260505170122 | 76 | 151 | 11.3 | 21.7 | 0.00 | 0.00 | 0.00 | 45 | 1001.4 |
| 20260505170054 | 76 | 188 | 10.4 | 21.7 | 0.00 | 0.00 | 0.00 | 45 | 1001.4 |
| 20260505165956 | 76 | 199 | 8.7 | 21.7 | 0.00 | 0.00 | 0.00 | 45 | 1001.5 |
| 20260505165859 | 76 | 181 | 10.4 | 21.7 | 0.00 | 0.00 | 0.00 | 45 | 1001.5 |
| 20260505165820 | 76 | 194 | 11.3 | 21.7 | 0.00 | 0.00 | 0.00 | 45 | 1001.6 |
| 20260505165624 | 76 | 189 | 12.2 | 20.9 | 0.00 | 0.00 | 0.00 | 45 | 1001.8 |
| 20260505165525 | 75 | 136 | 11.3 | 20.0 | 0.00 | 0.00 | 0.00 | 45 | 1001.8 |
| 20260505165427 | 75 | 152 | 7.8 | 18.2 | 0.00 | 0.00 | 0.00 | 47 | 1001.7 |
| 20260505165351 | 75 | 151 | 7.0 | 17.4 | 0.00 | 0.00 | 0.00 | 47 | 1001.7 |
| 20260505165314 | 75 | 174 | 6.1 | 16.5 | 0.00 | 0.00 | 0.00 | 47 | 1001.7 |
| 20260505165220 | 75 | 122 | 6.1 | 20.9 | 0.00 | 0.00 | 0.00 | 48 | 1001.7 |
| 20260505165144 | 75 | 158 | 7.0 | 20.9 | 0.00 | 0.00 | 0.00 | 47 | 1001.7 |
| 20260505165016 | 74 | 131 | 9.6 | 19.1 | 0.00 | 0.00 | 0.00 | 47 | 1001.9 |
| 20260505164930 | 74 | 190 | 9.6 | 19.1 | 0.00 | 0.00 | 0.00 | 47 | 1001.8 |
| 20260505164740 | 74 | 146 | 9.6 | 19.1 | 0.00 | 0.00 | 0.00 | 47 | 1002.0 |
| 20260505164704 | 74 | 194 | 9.6 | 19.1 | 0.00 | 0.00 | 0.00 | 47 | 1002.0 |
| 20260505164618 | 74 | 146 | 10.4 | 19.1 | 0.00 | 0.00 | 0.00 | 47 | 1001.9 |
| 20260505164428 | 74 | 140 | 13.0 | 19.1 | 0.00 | 0.00 | 0.00 | 47 | 1001.9 |
| 20260505164343 | 74 | 161 | 14.8 | 23.5 | 0.00 | 0.00 | 0.00 | 46 | 1001.9 |
| 20260505164307 | 74 | 175 | 10.4 | 20.0 | 0.00 | 0.00 | 0.00 | 47 | 1002.0 |
| 20260505164207 | 74 | 178 | 7.8 | 18.2 | 0.00 | 0.00 | 0.00 | 47 | 1002.3 |
| 20260505164121 | 74 | 148 | 7.8 | 15.6 | 0.00 | 0.00 | 0.00 | 46 | 1002.0 |
| 20260505163934 | 74 | 177 | 10.4 | 15.6 | 0.00 | 0.00 | 0.00 | 47 | 1002.2 |
| 20260505163850 | 74 | 192 | 10.4 | 15.6 | 0.00 | 0.00 | 0.00 | 47 | 1002.2 |
| 20260505163813 | 74 | 196 | 10.4 | 15.6 | 0.00 | 0.00 | 0.00 | 47 | 1002.3 |
| 20260505163733 | 74 | 128 | 10.4 | 16.5 | 0.00 | 0.00 | 0.00 | 47 | 1002.1 |
| 20260505163626 | 74 | 138 | 9.6 | 16.5 | 0.00 | 0.00 | 0.00 | 48 | 1002.2 |
| 20260505163456 | 74 | 160 | 9.6 | 17.4 | 0.00 | 0.00 | 0.00 | 47 | 1002.3 |
| 20260505163338 | 73 | 148 | 9.6 | 20.0 | 0.00 | 0.00 | 0.00 | 48 | 1002.5 |
| 20260505163241 | 73 | 139 | 9.6 | 20.0 | 0.00 | 0.00 | 0.00 | 48 | 1002.5 |
| 20260505163144 | 73 | 234 | 8.7 | 20.0 | 0.00 | 0.00 | 0.00 | 48 | 1002.5 |
| 20260505163041 | 73 | 174 | 8.7 | 20.0 | 0.00 | 0.00 | 0.00 | 48 | 1002.4 |
| 20260505162923 | 73 | 133 | 8.7 | 20.0 | 0.00 | 0.00 | 0.00 | 48 | 1002.4 |
| 20260505162845 | 73 | 166 | 10.4 | 20.0 | 0.00 | 0.00 | 0.00 | 47 | 1002.4 |
| 20260505162654 | 73 | 125 | 13.0 | 19.1 | 0.00 | 0.00 | 0.00 | 47 | 1002.5 |
| 20260505162609 | 73 | 179 | 13.0 | 19.1 | 0.00 | 0.00 | 0.00 | 48 | 1002.6 |
| 20260505162419 | 73 | 138 | 10.4 | 19.1 | 0.00 | 0.00 | 0.00 | 48 | 1002.6 |
| 20260505162319 | 73 | 170 | 10.4 | 19.1 | 0.00 | 0.00 | 0.00 | 48 | 1002.5 |
| 20260505162124 | 73 | 187 | 10.4 | 24.3 | 0.00 | 0.00 | 0.00 | 48 | 1002.6 |
| 20260505162038 | 73 | 148 | 11.3 | 24.3 | 0.00 | 0.00 | 0.00 | 47 | 1002.6 |
| 20260505161908 | 73 | 140 | 10.4 | 24.3 | 0.00 | 0.00 | 0.00 | 48 | 1002.6 |
| 20260505161834 | 73 | 186 | 11.3 | 24.3 | 0.00 | 0.00 | 0.00 | 48 | 1002.5 |
| 20260505161704 | 73 | 175 | 11.3 | 24.3 | 0.00 | 0.00 | 0.00 | 48 | 1002.6 |
| 20260505161618 | 73 | 144 | 8.7 | 24.3 | 0.00 | 0.00 | 0.00 | 48 | 1002.6 |
| 20260505161447 | 72 | 172 | 11.3 | 24.3 | 0.00 | 0.00 | 0.00 | 48 | 1002.7 |
| 20260505161350 | 72 | 146 | 11.3 | 24.3 | 0.00 | 0.00 | 0.00 | 48 | 1002.7 |
| 20260505161306 | 72 | 188 | 11.3 | 25.2 | 0.00 | 0.00 | 0.00 | 49 | 1002.8 |
| 20260505161024 | 72 | 169 | 12.2 | 21.7 | 0.00 | 0.00 | 0.00 | 48 | 1003.1 |
| 20260505160939 | 72 | 146 | 12.2 | 21.7 | 0.00 | 0.00 | 0.00 | 48 | 1002.8 |
| 20260505160757 | 72 | 169 | 12.2 | 21.7 | 0.00 | 0.00 | 0.00 | 48 | 1003.0 |
| 20260505160608 | 72 | 159 | 12.2 | 21.7 | 0.00 | 0.00 | 0.00 | 48 | 1003.0 |
| 20260505160426 | 72 | 185 | 12.2 | 22.6 | 0.00 | 0.00 | 0.00 | 48 | 1003.0 |
| 20260505160341 | 72 | 141 | 10.4 | 20.0 | 0.00 | 0.00 | 0.00 | 48 | 1003.0 |
| 20260505160241 | 72 | 145 | 9.6 | 20.0 | 0.00 | 0.00 | 0.00 | 48 | 1003.0 |
| 20260505160125 | 72 | 144 | 11.3 | 20.0 | 0.00 | 0.00 | 0.00 | 48 | 1003.0 |
| 20260505153344 | 71 | 174 | 7.8 | 19.1 | 0.00 | 0.00 | 0.00 | 49 | 1003.6 |
| 20260505153304 | 71 | 207 | 7.8 | 19.1 | 0.00 | 0.00 | 0.00 | 49 | 1003.7 |
| 20260505153206 | 71 | 186 | 9.6 | 19.1 | 0.00 | 0.00 | 0.00 | 49 | 1003.6 |
| 20260505153128 | 71 | 126 | 10.4 | 19.1 | 0.00 | 0.00 | 0.00 | 48 | 1003.6 |
| 20260505152931 | 71 | 170 | 13.9 | 18.2 | 0.00 | 0.00 | 0.00 | 48 | 1003.6 |
| 20260505152833 | 71 | 167 | 12.2 | 18.2 | 0.00 | 0.00 | 0.00 | 48 | 1003.5 |
| 20260505152737 | 71 | 175 | 11.3 | 18.2 | 0.00 | 0.00 | 0.00 | 48 | 1003.6 |
| 20260505152701 | 71 | 136 | 12.2 | 18.2 | 0.00 | 0.00 | 0.00 | 48 | 1003.6 |
| 20260505152624 | 71 | 164 | 11.3 | 18.2 | 0.00 | 0.00 | 0.00 | 49 | 1003.8 |
| 20260505152426 | 71 | 175 | 9.6 | 19.1 | 0.00 | 0.00 | 0.00 | 49 | 1003.6 |
| 20260505152350 | 71 | 190 | 11.3 | 19.1 | 0.00 | 0.00 | 0.00 | 48 | 1003.6 |
| 20260505152235 | 71 | 169 | 12.2 | 20.0 | 0.00 | 0.00 | 0.00 | 48 | 1003.5 |
| 20260505152157 | 71 | 144 | 12.2 | 19.1 | 0.00 | 0.00 | 0.00 | 48 | 1003.4 |
| 20260505152041 | 71 | 180 | 11.3 | 19.1 | 0.00 | 0.00 | 0.00 | 48 | 1003.6 |
| 20260505151919 | 71 | 178 | 11.3 | 19.1 | 0.00 | 0.00 | 0.00 | 48 | 1003.7 |
| 20260505151730 | 71 | 198 | 9.6 | 24.3 | 0.00 | 0.00 | 0.00 | 49 | 1003.6 |
| 20260505151627 | 70 | 236 | 9.6 | 24.3 | 0.00 | 0.00 | 0.00 | 49 | 1003.6 |
| 20260505151548 | 70 | 126 | 9.6 | 24.3 | 0.00 | 0.00 | 0.00 | 49 | 1003.6 |
| 20260505151443 | 70 | 123 | 9.6 | 24.3 | 0.00 | 0.00 | 0.00 | 49 | 1003.6 |
| 20260505151415 | 70 | 173 | 9.6 | 24.3 | 0.00 | 0.00 | 0.00 | 49 | 1003.6 |
| 20260505151238 | 70 | 190 | 12.2 | 24.3 | 0.00 | 0.00 | 0.00 | 49 | 1003.7 |
| 20260505151200 | 70 | 192 | 13.0 | 24.3 | 0.00 | 0.00 | 0.00 | 49 | 1003.7 |
| 20260505150951 | 70 | 160 | 8.7 | 22.6 | 0.00 | 0.00 | 0.00 | 49 | 1003.6 |
| 20260505150846 | 70 | 180 | 10.4 | 22.6 | 0.00 | 0.00 | 0.00 | 49 | 1003.6 |
| 20260505150716 | 70 | 202 | 10.4 | 22.6 | 0.00 | 0.00 | 0.00 | 49 | 1003.7 |
| 20260505150638 | 70 | 183 | 10.4 | 22.6 | 0.00 | 0.00 | 0.00 | 49 | 1003.7 |
| 20260505150516 | 69 | 155 | 11.3 | 22.6 | 0.00 | 0.00 | 0.00 | 48 | 1003.9 |
| 20260505150430 | 69 | 159 | 12.2 | 22.6 | 0.00 | 0.00 | 0.00 | 49 | 1003.9 |
| 20260505150314 | 69 | 166 | 13.0 | 22.6 | 0.00 | 0.00 | 0.00 | 49 | 1003.9 |
| 20260505150237 | 69 | 147 | 13.0 | 22.6 | 0.00 | 0.00 | 0.00 | 49 | 1003.9 |
| 20260505140623 | 65 | 139 | 7.0 | 18.2 | 0.00 | 0.00 | 0.00 | 49 | 1004.7 |
| 20260505140504 | 65 | 144 | 5.2 | 18.2 | 0.00 | 0.00 | 0.00 | 49 | 1004.6 |
| 20260505140426 | 65 | 140 | 5.2 | 18.2 | 0.00 | 0.00 | 0.00 | 49 | 1004.7 |
| 20260505140203 | 65 | 185 | 6.1 | 18.2 | 0.00 | 0.00 | 0.00 | 49 | 1004.7 |
| 20260505140116 | 65 | 172 | 6.1 | 18.2 | 0.00 | 0.00 | 0.00 | 49 | 1004.7 |
| 20260505130218 | 64 | 179 | 9.6 | 17.4 | 0.00 | 0.00 | 0.00 | 50 | 1004.6 |
| 20260505130140 | 64 | 159 | 7.8 | 15.6 | 0.00 | 0.00 | 0.00 | 50 | 1004.6 |
| 20260505125021 | 64 | 125 | 7.0 | 13.0 | 0.00 | 0.00 | 0.00 | 50 | 1005.0 |
| 20260505124945 | 63 | 172 | 7.0 | 13.0 | 0.00 | 0.00 | 0.00 | 50 | 1005.0 |
| 20260505124839 | 63 | 142 | 6.1 | 13.0 | 0.00 | 0.00 | 0.00 | 50 | 1004.9 |
| 20260505124724 | 63 | 162 | 7.0 | 13.0 | 0.00 | 0.00 | 0.00 | 50 | 1005.0 |
| 20260505124627 | 63 | 183 | 7.0 | 13.0 | 0.00 | 0.00 | 0.00 | 50 | 1004.9 |
| 20260505124541 | 63 | 192 | 7.0 | 13.0 | 0.00 | 0.00 | 0.00 | 50 | 1005.0 |
| 20260505124427 | 63 | 171 | 7.0 | 17.4 | 0.00 | 0.00 | 0.00 | 50 | 1004.9 |
| 20260505124341 | 63 | 188 | 7.0 | 17.4 | 0.00 | 0.00 | 0.00 | 50 | 1005.0 |
| 20260505124131 | 63 | 214 | 7.8 | 17.4 | 0.00 | 0.00 | 0.00 | 50 | 1005.0 |
| 20260505124026 | 63 | 233 | 7.8 | 17.4 | 0.00 | 0.00 | 0.00 | 50 | 1005.0 |
| 20260505123949 | 63 | 171 | 8.7 | 17.4 | 0.00 | 0.00 | 0.00 | 50 | 1005.0 |
| 20260505123853 | 63 | 227 | 8.7 | 17.4 | 0.00 | 0.00 | 0.00 | 50 | 1005.1 |
| 20260505123816 | 63 | 196 | 7.8 | 17.4 | 0.00 | 0.00 | 0.00 | 50 | 1005.0 |
| 20260505123644 | 62 | 169 | 7.8 | 14.8 | 0.00 | 0.00 | 0.00 | 50 | 1005.0 |
| 20260505123538 | 62 | 188 | 7.0 | 14.8 | 0.00 | 0.00 | 0.00 | 50 | 1004.9 |
| 20260505123408 | 62 | 158 | 6.1 | 14.8 | 0.00 | 0.00 | 0.00 | 50 | 1004.9 |
| 20260505123330 | 62 | 149 | 6.1 | 14.8 | 0.00 | 0.00 | 0.00 | 50 | 1004.9 |
| 20260505123137 | 62 | 123 | 7.0 | 14.8 | 0.00 | 0.00 | 0.00 | 51 | 1004.9 |
| 20260505123059 | 61 | 187 | 7.8 | 15.6 | 0.00 | 0.00 | 0.00 | 51 | 1004.9 |
| 20260505122943 | 61 | 131 | 7.0 | 15.6 | 0.00 | 0.00 | 0.00 | 51 | 1004.9 |
| 20260505122904 | 61 | 169 | 6.1 | 15.6 | 0.00 | 0.00 | 0.00 | 51 | 1005.0 |
| 20260505122714 | 61 | 209 | 7.0 | 15.6 | 0.00 | 0.00 | 0.00 | 51 | 1005.0 |
| 20260505122629 | 61 | 179 | 7.8 | 15.6 | 0.00 | 0.00 | 0.00 | 51 | 1005.0 |
| 20260505122438 | 61 | 130 | 10.4 | 15.6 | 0.00 | 0.00 | 0.00 | 51 | 1005.1 |
| 20260505122314 | 61 | 207 | 12.2 | 17.4 | 0.00 | 0.00 | 0.00 | 51 | 1005.1 |
| 20260505122232 | 61 | 216 | 10.4 | 17.4 | 0.00 | 0.00 | 0.00 | 51 | 1005.1 |
| 20260505122155 | 61 | 165 | 7.8 | 17.4 | 0.00 | 0.00 | 0.00 | 51 | 1005.1 |
| 20260505122116 | 61 | 173 | 6.1 | 17.4 | 0.00 | 0.00 | 0.00 | 51 | 1005.1 |
| 20260505121941 | 61 | 174 | 7.0 | 17.4 | 0.00 | 0.00 | 0.00 | 51 | 1005.1 |
| 20260505121902 | 61 | 158 | 7.0 | 17.4 | 0.00 | 0.00 | 0.00 | 51 | 1005.1 |
| 20260505121743 | 61 | 183 | 7.8 | 17.4 | 0.00 | 0.00 | 0.00 | 51 | 1005.1 |
| 20260505121637 | 61 | 161 | 9.6 | 17.4 | 0.00 | 0.00 | 0.00 | 51 | 1005.0 |
| 20260505121507 | 61 | 182 | 12.2 | 18.2 | 0.00 | 0.00 | 0.00 | 51 | 1005.1 |
| 20260505121430 | 61 | 150 | 11.3 | 18.2 | 0.00 | 0.00 | 0.00 | 51 | 1005.1 |
| 20260505121234 | 61 | 195 | 9.6 | 19.1 | 0.00 | 0.00 | 0.00 | 51 | 1005.2 |
| 20260505121137 | 61 | 148 | 7.0 | 19.1 | 0.00 | 0.00 | 0.00 | 51 | 1005.1 |
| 20260505121024 | 61 | 159 | 7.8 | 19.1 | 0.00 | 0.00 | 0.00 | 51 | 1005.1 |
| 20260505120948 | 61 | 201 | 9.6 | 19.1 | 0.00 | 0.00 | 0.00 | 51 | 1005.1 |
| 20260505120825 | 61 | 155 | 10.4 | 20.0 | 0.00 | 0.00 | 0.00 | 51 | 1005.0 |
| 20260505120728 | 61 | 166 | 8.7 | 19.1 | 0.00 | 0.00 | 0.00 | 51 | 1004.9 |
| 20260505120651 | 61 | 151 | 9.6 | 19.1 | 0.00 | 0.00 | 0.00 | 51 | 1004.9 |
| 20260505120613 | 61 | 207 | 10.4 | 19.1 | 0.00 | 0.00 | 0.00 | 51 | 1004.9 |
| 20260505120518 | 61 | 165 | 10.4 | 20.0 | 0.00 | 0.00 | 0.00 | 51 | 1004.9 |
| 20260505120438 | 61 | 158 | 9.6 | 20.0 | 0.00 | 0.00 | 0.00 | 51 | 1004.8 |
| 20260505120310 | 61 | 146 | 10.4 | 15.6 | 0.00 | 0.00 | 0.00 | 51 | 1004.9 |
| 20260505120224 | 61 | 150 | 11.3 | 18.2 | 0.00 | 0.00 | 0.00 | 51 | 1004.9 |
| 20260505120037 | 61 | 161 | 10.4 | 21.7 | 0.00 | 0.00 | 0.00 | 51 | 1004.9 |
| 20260505120001 | 61 | 174 | 10.4 | 21.7 | 0.00 | 0.00 | 0.00 | 51 | 1004.9 |
| 20260505115914 | 61 | 198 | 11.3 | 21.7 | 0.00 | 0.00 | 0.00 | 51 | 1004.9 |
| 20260505115634 | 61 | 163 | 9.6 | 21.7 | 0.00 | 0.00 | 0.00 | 51 | 1004.8 |
| 20260505115549 | 61 | 192 | 11.3 | 21.7 | 0.00 | 0.00 | 0.00 | 51 | 1004.8 |
| 20260505115419 | 61 | 215 | 13.0 | 21.7 | 0.00 | 0.00 | 0.00 | 50 | 1005.0 |
| 20260505115320 | 61 | 167 | 12.2 | 21.7 | 0.00 | 0.00 | 0.00 | 50 | 1004.9 |
| 20260505115122 | 61 | 188 | 7.8 | 14.8 | 0.00 | 0.00 | 0.00 | 51 | 1004.8 |
| 20260505115047 | 61 | 178 | 7.8 | 16.5 | 0.00 | 0.00 | 0.00 | 51 | 1004.8 |
| 20260505114936 | 61 | 189 | 8.7 | 16.5 | 0.00 | 0.00 | 0.00 | 51 | 1004.9 |
| 20260505114857 | 61 | 222 | 7.8 | 16.5 | 0.00 | 0.00 | 0.00 | 51 | 1004.9 |
| 20260505114728 | 61 | 157 | 7.8 | 16.5 | 0.00 | 0.00 | 0.00 | 51 | 1004.8 |
| 20260505114621 | 61 | 170 | 8.7 | 16.5 | 0.00 | 0.00 | 0.00 | 50 | 1004.8 |
| 20260505114432 | 61 | 205 | 7.8 | 16.5 | 0.00 | 0.00 | 0.00 | 50 | 1004.9 |
| 20260505114327 | 61 | 221 | 9.6 | 16.5 | 0.00 | 0.00 | 0.00 | 50 | 1004.8 |
| 20260505114249 | 61 | 181 | 9.6 | 16.5 | 0.00 | 0.00 | 0.00 | 50 | 1004.8 |
| 20260505114133 | 61 | 152 | 7.8 | 13.9 | 0.00 | 0.00 | 0.00 | 50 | 1004.9 |
| 20260505114054 | 61 | 176 | 7.8 | 13.9 | 0.00 | 0.00 | 0.00 | 50 | 1005.0 |
| 20260505113935 | 61 | 184 | 6.1 | 13.9 | 0.00 | 0.00 | 0.00 | 51 | 1005.0 |
| 20260505113842 | 61 | 231 | 4.3 | 13.9 | 0.00 | 0.00 | 0.00 | 50 | 1005.0 |
| 20260505113737 | 61 | 106 | 5.2 | 13.9 | 0.00 | 0.00 | 0.00 | 51 | 1004.9 |
| 20260505113710 | 61 | 191 | 6.1 | 13.9 | 0.00 | 0.00 | 0.00 | 50 | 1004.9 |
| 20260505113626 | 61 | 181 | 7.0 | 15.6 | 0.00 | 0.00 | 0.00 | 50 | 1004.7 |
| 20260505113527 | 61 | 198 | 7.8 | 15.6 | 0.00 | 0.00 | 0.00 | 50 | 1004.7 |
| 20260505113330 | 61 | 123 | 7.8 | 15.6 | 0.00 | 0.00 | 0.00 | 50 | 1004.7 |
| 20260505113232 | 61 | 151 | 7.8 | 15.6 | 0.00 | 0.00 | 0.00 | 50 | 1004.7 |
| 20260505113136 | 61 | 180 | 7.8 | 15.6 | 0.00 | 0.00 | 0.00 | 50 | 1004.6 |
| 20260505113058 | 61 | 204 | 7.0 | 15.6 | 0.00 | 0.00 | 0.00 | 50 | 1004.6 |
| 20260505113023 | 61 | 185 | 7.8 | 15.6 | 0.00 | 0.00 | 0.00 | 50 | 1004.6 |
| 20260505112827 | 61 | 183 | 8.7 | 14.8 | 0.00 | 0.00 | 0.00 | 50 | 1004.7 |
| 20260505112749 | 61 | 182 | 8.7 | 16.5 | 0.00 | 0.00 | 0.00 | 50 | 1004.7 |
| 20260505112631 | 61 | 145 | 7.8 | 16.5 | 0.00 | 0.00 | 0.00 | 50 | 1004.7 |
| 20260505112555 | 61 | 187 | 8.7 | 16.5 | 0.00 | 0.00 | 0.00 | 50 | 1004.7 |
| 20260505112516 | 61 | 145 | 9.6 | 16.5 | 0.00 | 0.00 | 0.00 | 50 | 1004.8 |
| 20260505112421 | 61 | 229 | 9.6 | 16.5 | 0.00 | 0.00 | 0.00 | 50 | 1004.8 |
| 20260505112322 | 61 | 151 | 9.6 | 16.5 | 0.00 | 0.00 | 0.00 | 50 | 1004.8 |
| 20260505112124 | 61 | 147 | 8.7 | 16.5 | 0.00 | 0.00 | 0.00 | 50 | 1004.9 |
| 20260505112030 | 60 | 188 | 9.6 | 16.5 | 0.00 | 0.00 | 0.00 | 50 | 1004.9 |
| 20260505111932 | 60 | 208 | 9.6 | 16.5 | 0.00 | 0.00 | 0.00 | 50 | 1004.9 |
| 20260505111855 | 60 | 149 | 7.8 | 17.4 | 0.00 | 0.00 | 0.00 | 50 | 1004.9 |
| 20260505111817 | 60 | 151 | 6.1 | 17.4 | 0.00 | 0.00 | 0.00 | 50 | 1005.0 |
| 20260505111639 | 60 | 200 | 7.8 | 16.5 | 0.00 | 0.00 | 0.00 | 50 | 1004.9 |
| 20260505111542 | 60 | 155 | 8.7 | 16.5 | 0.00 | 0.00 | 0.00 | 50 | 1004.9 |
| 20260505111426 | 60 | 165 | 8.7 | 16.5 | 0.00 | 0.00 | 0.00 | 50 | 1004.9 |
| 20260505111347 | 60 | 174 | 9.6 | 16.5 | 0.00 | 0.00 | 0.00 | 50 | 1004.9 |
| 20260505111218 | 60 | 161 | 7.8 | 18.2 | 0.00 | 0.00 | 0.00 | 50 | 1004.9 |
| 20260505111131 | 60 | 159 | 6.1 | 16.5 | 0.00 | 0.00 | 0.00 | 50 | 1005.0 |
| 20260505110947 | 60 | 166 | 7.8 | 16.5 | 0.00 | 0.00 | 0.00 | 50 | 1004.9 |
| 20260505110839 | 60 | 226 | 7.8 | 16.5 | 0.00 | 0.00 | 0.00 | 50 | 1004.9 |
| 20260505110742 | 60 | 148 | 7.8 | 15.6 | 0.00 | 0.00 | 0.00 | 50 | 1004.9 |
| 20260505110657 | 60 | 158 | 8.7 | 15.6 | 0.00 | 0.00 | 0.00 | 50 | 1004.9 |
| 20260505110538 | 60 | 191 | 8.7 | 15.6 | 0.00 | 0.00 | 0.00 | 50 | 1004.8 |
| 20260505110443 | 60 | 217 | 8.7 | 13.9 | 0.00 | 0.00 | 0.00 | 50 | 1004.8 |
| 20260505110404 | 60 | 150 | 7.8 | 15.6 | 0.00 | 0.00 | 0.00 | 50 | 1004.8 |
| 20260505110203 | 59 | 205 | 6.1 | 15.6 | 0.00 | 0.00 | 0.00 | 50 | 1004.8 |
| 20260505102038 | 58 | 179 | 5.2 | 9.6 | 0.00 | 0.00 | 0.00 | 50 | 1004.5 |
| 20260505101959 | 58 | 173 | 4.3 | 13.0 | 0.00 | 0.00 | 0.00 | 51 | 1004.5 |
| 20260505101905 | 58 | 155 | 4.3 | 13.0 | 0.00 | 0.00 | 0.00 | 51 | 1004.5 |
| 20260505101825 | 58 | 153 | 4.3 | 13.0 | 0.00 | 0.00 | 0.00 | 51 | 1004.5 |
| 20260505101628 | 58 | 191 | 6.1 | 13.0 | 0.00 | 0.00 | 0.00 | 51 | 1004.4 |
| 20260505101535 | 59 | 119 | 7.8 | 13.0 | 0.00 | 0.00 | 0.00 | 51 | 1004.5 |
| 20260505101438 | 59 | 159 | 6.1 | 13.0 | 0.00 | 0.00 | 0.00 | 51 | 1004.5 |
| 20260505101402 | 59 | 171 | 6.1 | 13.0 | 0.00 | 0.00 | 0.00 | 51 | 1004.5 |
| 20260505101324 | 59 | 143 | 5.2 | 13.0 | 0.00 | 0.00 | 0.00 | 51 | 1004.5 |
| 20260505101155 | 59 | 188 | 5.2 | 13.9 | 0.00 | 0.00 | 0.00 | 51 | 1004.5 |
| 20260505101049 | 59 | 152 | 4.3 | 9.6 | 0.00 | 0.00 | 0.00 | 52 | 1004.5 |
| 20260505100921 | 59 | 185 | 6.1 | 9.6 | 0.00 | 0.00 | 0.00 | 52 | 1004.6 |
| 20260505100843 | 59 | 167 | 6.1 | 9.6 | 0.00 | 0.00 | 0.00 | 51 | 1004.6 |
| 20260505100625 | 59 | 148 | 6.1 | 13.0 | 0.00 | 0.00 | 0.00 | 52 | 1004.6 |
| 20260505100549 | 59 | 171 | 6.1 | 13.0 | 0.00 | 0.00 | 0.00 | 52 | 1004.6 |
| 20260505100437 | 59 | 145 | 5.2 | 13.0 | 0.00 | 0.00 | 0.00 | 52 | 1004.6 |
| 20260505100400 | 59 | 206 | 5.2 | 13.0 | 0.00 | 0.00 | 0.00 | 52 | 1004.6 |
| 20260505100317 | 59 | 188 | 6.1 | 13.9 | 0.00 | 0.00 | 0.00 | 52 | 1004.6 |
| 20260505100145 | 59 | 178 | 6.1 | 13.9 | 0.00 | 0.00 | 0.00 | 52 | 1004.6 |
| 20260505100046 | 59 | 178 | 7.0 | 13.9 | 0.00 | 0.00 | 0.00 | 52 | 1004.6 |
| 20260505095923 | 59 | 154 | 7.8 | 16.5 | 0.00 | 0.00 | 0.00 | 52 | 1004.5 |
| 20260505095826 | 59 | 160 | 7.8 | 16.5 | 0.00 | 0.00 | 0.00 | 52 | 1004.5 |
| 20260505095750 | 59 | 185 | 7.0 | 16.5 | 0.00 | 0.00 | 0.00 | 52 | 1004.5 |
| 20260505095712 | 59 | 149 | 7.0 | 16.5 | 0.00 | 0.00 | 0.00 | 52 | 1004.5 |
| 20260505095634 | 59 | 160 | 7.0 | 16.5 | 0.00 | 0.00 | 0.00 | 52 | 1004.5 |
| 20260505095516 | 59 | 169 | 7.8 | 16.5 | 0.00 | 0.00 | 0.00 | 52 | 1004.5 |
| 20260505095443 | 59 | 184 | 9.6 | 19.1 | 0.00 | 0.00 | 0.00 | 52 | 1004.5 |
| 20260505095133 | 59 | 184 | 8.7 | 19.1 | 0.00 | 0.00 | 0.00 | 52 | 1004.5 |
| 20260505095035 | 59 | 136 | 7.8 | 19.1 | 0.00 | 0.00 | 0.00 | 51 | 1004.5 |
| 20260505094938 | 60 | 182 | 6.1 | 19.1 | 0.00 | 0.00 | 0.00 | 51 | 1004.5 |
| 20260505094900 | 60 | 166 | 6.1 | 19.1 | 0.00 | 0.00 | 0.00 | 51 | 1004.5 |
| 20260505094823 | 59 | 191 | 7.0 | 19.1 | 0.00 | 0.00 | 0.00 | 51 | 1004.5 |
| 20260505094625 | 59 | 157 | 7.8 | 19.1 | 0.00 | 0.00 | 0.00 | 51 | 1004.5 |
| 20260505094547 | 59 | 188 | 6.1 | 16.5 | 0.00 | 0.00 | 0.00 | 51 | 1004.5 |
| 20260505094430 | 59 | 166 | 7.0 | 13.9 | 0.00 | 0.00 | 0.00 | 51 | 1004.7 |
| 20260505094359 | 59 | 166 | 6.1 | 13.9 | 0.00 | 0.00 | 0.00 | 51 | 1004.7 |
| 20260505094320 | 59 | 204 | 5.2 | 13.9 | 0.00 | 0.00 | 0.00 | 51 | 1004.6 |
| 20260505094142 | 60 | 159 | 6.1 | 16.5 | 0.00 | 0.00 | 0.00 | 51 | 1004.7 |
| 20260505094105 | 59 | 171 | 7.8 | 16.5 | 0.00 | 0.00 | 0.00 | 51 | 1004.7 |
| 20260505093947 | 59 | 167 | 7.8 | 16.5 | 0.00 | 0.00 | 0.00 | 51 | 1004.7 |
| 20260505093909 | 59 | 178 | 7.8 | 16.5 | 0.00 | 0.00 | 0.00 | 51 | 1004.7 |
| 20260505093729 | 59 | 146 | 8.7 | 16.5 | 0.00 | 0.00 | 0.00 | 51 | 1004.7 |
| 20260505093622 | 59 | 100 | 7.8 | 16.5 | 0.00 | 0.00 | 0.00 | 51 | 1004.7 |
| 20260505093431 | 59 | 217 | 7.8 | 16.5 | 0.00 | 0.00 | 0.00 | 51 | 1004.8 |
| 20260505093346 | 59 | 175 | 8.7 | 16.5 | 0.00 | 0.00 | 0.00 | 51 | 1004.8 |
| 20260505093214 | 59 | 128 | 7.0 | 13.9 | 0.00 | 0.00 | 0.00 | 51 | 1004.8 |
| 20260505093140 | 59 | 181 | 6.1 | 12.2 | 0.00 | 0.00 | 0.00 | 51 | 1004.8 |
| 20260505092923 | 59 | 188 | 6.1 | 12.2 | 0.00 | 0.00 | 0.00 | 51 | 1004.8 |
| 20260505092847 | 59 | 196 | 6.1 | 12.2 | 0.00 | 0.00 | 0.00 | 51 | 1004.8 |
| 20260505092729 | 59 | 186 | 7.8 | 12.2 | 0.00 | 0.00 | 0.00 | 51 | 1004.8 |
| 20260505092652 | 59 | 138 | 7.0 | 11.3 | 0.00 | 0.00 | 0.00 | 52 | 1004.9 |
| 20260505092533 | 59 | 190 | 6.1 | 10.4 | 0.00 | 0.00 | 0.00 | 51 | 1004.8 |
| 20260505092455 | 59 | 140 | 6.1 | 10.4 | 0.00 | 0.00 | 0.00 | 51 | 1004.8 |
| 20260505092416 | 59 | 173 | 6.1 | 10.4 | 0.00 | 0.00 | 0.00 | 51 | 1004.8 |
| 20260505092238 | 59 | 173 | 7.0 | 10.4 | 0.00 | 0.00 | 0.00 | 51 | 1004.8 |
| 20260505092146 | 59 | 178 | 7.0 | 10.4 | 0.00 | 0.00 | 0.00 | 51 | 1004.8 |
| 20260505092050 | 59 | 159 | 6.1 | 11.3 | 0.00 | 0.00 | 0.00 | 51 | 1004.7 |
| 20260505091951 | 59 | 118 | 5.2 | 13.9 | 0.00 | 0.00 | 0.00 | 51 | 1004.8 |
| 20260505091735 | 59 | 134 | 5.2 | 13.9 | 0.00 | 0.00 | 0.00 | 51 | 1004.7 |
| 20260505091636 | 59 | 165 | 5.2 | 13.9 | 0.00 | 0.00 | 0.00 | 51 | 1004.8 |
| 20260505091538 | 59 | 192 | 6.1 | 13.9 | 0.00 | 0.00 | 0.00 | 51 | 1004.7 |
| 20260505091502 | 59 | 140 | 6.1 | 13.9 | 0.00 | 0.00 | 0.00 | 51 | 1004.7 |
| 20260505091424 | 59 | 190 | 6.1 | 13.9 | 0.00 | 0.00 | 0.00 | 51 | 1004.6 |
| 20260505091255 | 59 | 143 | 7.8 | 13.9 | 0.00 | 0.00 | 0.00 | 51 | 1004.7 |
| 20260505091127 | 59 | 147 | 8.7 | 13.9 | 0.00 | 0.00 | 0.00 | 52 | 1004.6 |
| 20260505091055 | 59 | 189 | 7.8 | 13.0 | 0.00 | 0.00 | 0.00 | 52 | 1004.6 |
| 20260505090940 | 59 | 112 | 6.1 | 13.0 | 0.00 | 0.00 | 0.00 | 52 | 1004.6 |
| 20260505090900 | 59 | 104 | 6.1 | 13.0 | 0.00 | 0.00 | 0.00 | 52 | 1004.6 |
| 20260505090723 | 59 | 193 | 7.8 | 13.0 | 0.00 | 0.00 | 0.00 | 52 | 1004.6 |
| 20260505090646 | 59 | 163 | 7.0 | 13.9 | 0.00 | 0.00 | 0.00 | 52 | 1004.6 |
| 20260505090527 | 59 | 165 | 5.2 | 13.9 | 0.00 | 0.00 | 0.00 | 52 | 1004.6 |
| 20260505090449 | 59 | 174 | 5.2 | 13.9 | 0.00 | 0.00 | 0.00 | 52 | 1004.6 |
| 20260505090410 | 59 | 197 | 6.1 | 13.9 | 0.00 | 0.00 | 0.00 | 51 | 1004.6 |
| 20260505090252 | 59 | 180 | 6.1 | 13.9 | 0.00 | 0.00 | 0.00 | 51 | 1004.5 |
| 20260505090215 | 59 | 213 | 6.1 | 13.9 | 0.00 | 0.00 | 0.00 | 51 | 1004.6 |
| 20260505090044 | 59 | 161 | 7.0 | 13.9 | 0.00 | 0.00 | 0.00 | 51 | 1004.5 |
| 20260505085943 | 59 | 159 | 7.8 | 13.9 | 0.00 | 0.00 | 0.00 | 51 | 1004.5 |
| 20260505085827 | 59 | 167 | 7.0 | 14.8 | 0.00 | 0.00 | 0.00 | 51 | 1004.6 |
| 20260505085729 | 59 | 203 | 4.3 | 11.3 | 0.00 | 0.00 | 0.00 | 51 | 1004.6 |
| 20260505085651 | 59 | 170 | 4.3 | 11.3 | 0.00 | 0.00 | 0.00 | 51 | 1004.6 |
| 20260505085523 | 59 | 187 | 7.0 | 12.2 | 0.00 | 0.00 | 0.00 | 51 | 1004.6 |
| 20260505085416 | 59 | 182 | 6.1 | 11.3 | 0.00 | 0.00 | 0.00 | 51 | 1004.6 |
| 20260505085136 | 59 | 153 | 7.0 | 9.6 | 0.00 | 0.00 | 0.00 | 51 | 1004.6 |
| 20260505085030 | 59 | 162 | 5.2 | 8.7 | 0.00 | 0.00 | 0.00 | 51 | 1004.7 |
| 20260505084954 | 59 | 155 | 5.2 | 8.7 | 0.00 | 0.00 | 0.00 | 51 | 1004.7 |
| 20260505084911 | 59 | 157 | 6.1 | 8.7 | 0.00 | 0.00 | 0.00 | 51 | 1004.7 |
| 20260505084834 | 59 | 143 | 7.0 | 8.7 | 0.00 | 0.00 | 0.00 | 51 | 1004.7 |
| 20260505084645 | 59 | 163 | 7.0 | 9.6 | 0.00 | 0.00 | 0.00 | 51 | 1004.7 |
| 20260505084538 | 59 | 178 | 5.2 | 8.7 | 0.00 | 0.00 | 0.00 | 51 | 1004.8 |
| 20260505084501 | 59 | 175 | 5.2 | 8.7 | 0.00 | 0.00 | 0.00 | 51 | 1004.8 |
| 20260505084325 | 59 | 132 | 5.2 | 10.4 | 0.00 | 0.00 | 0.00 | 51 | 1004.9 |
| 20260505084237 | 59 | 155 | 3.5 | 12.2 | 0.00 | 0.00 | 0.00 | 51 | 1004.9 |
| 20260505084140 | 59 | 129 | 3.5 | 12.2 | 0.00 | 0.00 | 0.00 | 51 | 1004.9 |
| 20260505084026 | 59 | 202 | 4.3 | 12.2 | 0.00 | 0.00 | 0.00 | 51 | 1004.9 |
| 20260505083948 | 59 | 158 | 5.2 | 12.2 | 0.00 | 0.00 | 0.00 | 51 | 1004.9 |
| 20260505083825 | 59 | 134 | 6.1 | 12.2 | 0.00 | 0.00 | 0.00 | 51 | 1004.9 |
| 20260505083728 | 59 | 169 | 5.2 | 12.2 | 0.00 | 0.00 | 0.00 | 51 | 1004.9 |
| 20260505083651 | 59 | 197 | 5.2 | 12.2 | 0.00 | 0.00 | 0.00 | 51 | 1004.9 |
| 20260505083624 | 59 | 174 | 6.1 | 12.2 | 0.00 | 0.00 | 0.00 | 51 | 1004.9 |
| 20260505083428 | 59 | 143 | 6.1 | 13.9 | 0.00 | 0.00 | 0.00 | 51 | 1005.0 |
| 20260505083351 | 59 | 174 | 5.2 | 13.9 | 0.00 | 0.00 | 0.00 | 51 | 1005.0 |
| 20260505083256 | 59 | 192 | 4.3 | 9.6 | 0.00 | 0.00 | 0.00 | 51 | 1005.0 |
| 20260505083219 | 59 | 108 | 5.2 | 10.4 | 0.00 | 0.00 | 0.00 | 51 | 1005.0 |
| 20260505083022 | 59 | 142 | 4.3 | 10.4 | 0.00 | 0.00 | 0.00 | 51 | 1004.9 |
| 20260505082924 | 59 | 164 | 6.1 | 10.4 | 0.00 | 0.00 | 0.00 | 51 | 1005.0 |
| 20260505082826 | 60 | 154 | 5.2 | 10.4 | 0.00 | 0.00 | 0.00 | 51 | 1005.0 |
| 20260505082726 | 60 | 108 | 4.3 | 10.4 | 0.00 | 0.00 | 0.00 | 51 | 1004.9 |
| 20260505082530 | 60 | 169 | 5.2 | 10.4 | 0.00 | 0.00 | 0.00 | 51 | 1004.9 |
| 20260505082433 | 60 | 145 | 7.0 | 10.4 | 0.00 | 0.00 | 0.00 | 51 | 1004.9 |
| 20260505082336 | 60 | 161 | 7.0 | 10.4 | 0.00 | 0.00 | 0.00 | 51 | 1005.0 |
| 20260505082257 | 60 | 150 | 7.0 | 10.4 | 0.00 | 0.00 | 0.00 | 51 | 1005.0 |
| 20260505082223 | 60 | 165 | 6.1 | 10.4 | 0.00 | 0.00 | 0.00 | 51 | 1005.0 |
| 20260505082026 | 60 | 130 | 4.3 | 11.3 | 0.00 | 0.00 | 0.00 | 51 | 1005.0 |
| 20260505081929 | 60 | 114 | 5.2 | 11.3 | 0.00 | 0.00 | 0.00 | 51 | 1004.9 |
| 20260505081832 | 60 | 141 | 6.1 | 11.3 | 0.00 | 0.00 | 0.00 | 51 | 1005.0 |
| 20260505081755 | 60 | 122 | 6.1 | 11.3 | 0.00 | 0.00 | 0.00 | 51 | 1005.0 |
| 20260505081716 | 60 | 161 | 6.1 | 11.3 | 0.00 | 0.00 | 0.00 | 51 | 1005.0 |
| 20260505081619 | 60 | 136 | 5.2 | 11.3 | 0.00 | 0.00 | 0.00 | 51 | 1005.0 |
| 20260505081540 | 60 | 152 | 6.1 | 11.3 | 0.00 | 0.00 | 0.00 | 51 | 1005.0 |
| 20260505081412 | 60 | 163 | 7.8 | 11.3 | 0.00 | 0.00 | 0.00 | 51 | 1005.1 |
| 20260505081327 | 60 | 144 | 7.8 | 11.3 | 0.00 | 0.00 | 0.00 | 51 | 1005.0 |
| 20260505081156 | 60 | 200 | 6.1 | 13.0 | 0.00 | 0.00 | 0.00 | 51 | 1005.0 |
| 20260505081102 | 60 | 150 | 7.0 | 13.0 | 0.00 | 0.00 | 0.00 | 51 | 1005.0 |
| 20260505081005 | 60 | 136 | 5.2 | 13.0 | 0.00 | 0.00 | 0.00 | 51 | 1005.0 |
| 20260505080926 | 60 | 184 | 5.2 | 13.0 | 0.00 | 0.00 | 0.00 | 51 | 1004.9 |
| 20260505080728 | 60 | 169 | 6.1 | 13.9 | 0.00 | 0.00 | 0.00 | 51 | 1004.9 |
| 20260505080631 | 60 | 109 | 7.8 | 13.9 | 0.00 | 0.00 | 0.00 | 51 | 1004.9 |
| 20260505080514 | 60 | 137 | 7.8 | 14.8 | 0.00 | 0.00 | 0.00 | 51 | 1005.0 |
| 20260505080448 | 60 | 163 | 7.8 | 14.8 | 0.00 | 0.00 | 0.00 | 51 | 1005.0 |
| 20260505080412 | 60 | 159 | 7.0 | 13.9 | 0.00 | 0.00 | 0.00 | 51 | 1004.9 |
| 20260505080234 | 59 | 150 | 7.0 | 13.9 | 0.00 | 0.00 | 0.00 | 51 | 1004.9 |
| 20260505080200 | 59 | 155 | 7.8 | 13.9 | 0.00 | 0.00 | 0.00 | 51 | 1004.9 |
| 20260505080042 | 59 | 227 | 7.0 | 13.9 | 0.00 | 0.00 | 0.00 | 51 | 1004.9 |
| 20260505075941 | 59 | 186 | 5.2 | 10.4 | 0.00 | 0.00 | 0.00 | 51 | 1004.8 |
| 20260505075825 | 59 | 158 | 5.2 | 10.4 | 0.00 | 0.00 | 0.00 | 51 | 1004.8 |
| 20260505075736 | 59 | 109 | 5.2 | 10.4 | 0.00 | 0.00 | 0.00 | 51 | 1004.8 |
| 20260505075618 | 59 | 151 | 5.2 | 10.4 | 0.00 | 0.00 | 0.00 | 51 | 1004.8 |
| 20260505075540 | 59 | 161 | 6.1 | 10.4 | 0.00 | 0.00 | 0.00 | 51 | 1004.8 |
| 20260505075412 | 59 | 154 | 6.1 | 12.2 | 0.00 | 0.00 | 0.00 | 51 | 1004.8 |
| 20260505075327 | 59 | 159 | 5.2 | 12.2 | 0.00 | 0.00 | 0.00 | 51 | 1004.8 |
| 20260505075157 | 59 | 206 | 3.5 | 12.2 | 0.00 | 0.00 | 0.00 | 51 | 1004.8 |
| 20260505075043 | 59 | 144 | 4.3 | 12.2 | 0.00 | 0.00 | 0.00 | 51 | 1004.8 |
| 20260505074945 | 59 | 174 | 4.3 | 12.2 | 0.00 | 0.00 | 0.00 | 51 | 1004.9 |
| 20260505074907 | 59 | 166 | 4.3 | 12.2 | 0.00 | 0.00 | 0.00 | 51 | 1004.9 |
| 20260505074737 | 60 | 166 | 6.1 | 12.2 | 0.00 | 0.00 | 0.00 | 51 | 1004.9 |
| 20260505074619 | 60 | 182 | 7.0 | 12.2 | 0.00 | 0.00 | 0.00 | 51 | 1004.9 |
| 20260505074541 | 60 | 191 | 6.1 | 12.2 | 0.00 | 0.00 | 0.00 | 51 | 1004.9 |
| 20260505074325 | 60 | 178 | 4.3 | 11.3 | 0.00 | 0.00 | 0.00 | 51 | 1004.8 |
| 20260505074227 | 60 | 163 | 5.2 | 11.3 | 0.00 | 0.00 | 0.00 | 51 | 1004.8 |
| 20260505074130 | 60 | 158 | 7.0 | 11.3 | 0.00 | 0.00 | 0.00 | 51 | 1004.8 |
| 20260505074054 | 60 | 157 | 7.8 | 11.3 | 0.00 | 0.00 | 0.00 | 51 | 1004.8 |
| 20260505074015 | 60 | 143 | 7.8 | 12.2 | 0.00 | 0.00 | 0.00 | 51 | 1004.9 |
| 20260505073829 | 60 | 117 | 6.1 | 8.7 | 0.00 | 0.00 | 0.00 | 51 | 1004.8 |
| 20260505073745 | 60 | 152 | 6.1 | 8.7 | 0.00 | 0.00 | 0.00 | 51 | 1004.8 |
| 20260505073616 | 60 | 134 | 6.1 | 10.4 | 0.00 | 0.00 | 0.00 | 51 | 1004.8 |
| 20260505073537 | 60 | 149 | 5.2 | 10.4 | 0.00 | 0.00 | 0.00 | 51 | 1004.9 |
| 20260505073342 | 60 | 157 | 5.2 | 10.4 | 0.00 | 0.00 | 0.00 | 51 | 1004.8 |
| 20260505073304 | 60 | 197 | 5.2 | 10.4 | 0.00 | 0.00 | 0.00 | 51 | 1004.8 |
| 20260505073208 | 60 | 143 | 5.2 | 10.4 | 0.00 | 0.00 | 0.00 | 51 | 1004.8 |
| 20260505073130 | 60 | 189 | 6.1 | 10.4 | 0.00 | 0.00 | 0.00 | 51 | 1004.9 |
| 20260505072934 | 60 | 150 | 7.0 | 10.4 | 0.00 | 0.00 | 0.00 | 50 | 1004.9 |
| 20260505072837 | 60 | 143 | 7.0 | 11.3 | 0.00 | 0.00 | 0.00 | 51 | 1005.0 |
| 20260505072724 | 60 | 207 | 6.1 | 10.4 | 0.00 | 0.00 | 0.00 | 51 | 1005.0 |
| 20260505072645 | 60 | 167 | 5.2 | 10.4 | 0.00 | 0.00 | 0.00 | 51 | 1005.0 |
| 20260505072517 | 60 | 188 | 5.2 | 10.4 | 0.00 | 0.00 | 0.00 | 50 | 1005.0 |
| 20260505072434 | 60 | 138 | 6.1 | 10.4 | 0.00 | 0.00 | 0.00 | 50 | 1005.0 |
| 20260505072305 | 60 | 165 | 6.1 | 10.4 | 0.00 | 0.00 | 0.00 | 50 | 1005.0 |
| 20260505072226 | 60 | 172 | 6.1 | 10.4 | 0.00 | 0.00 | 0.00 | 51 | 1004.9 |
| 20260505072029 | 60 | 130 | 5.2 | 9.6 | 0.00 | 0.00 | 0.00 | 50 | 1005.0 |
| 20260505071951 | 60 | 189 | 6.1 | 9.6 | 0.00 | 0.00 | 0.00 | 50 | 1005.0 |
| 20260505071834 | 60 | 148 | 6.1 | 9.6 | 0.00 | 0.00 | 0.00 | 51 | 1005.0 |
| 20260505071757 | 60 | 186 | 6.1 | 9.6 | 0.00 | 0.00 | 0.00 | 51 | 1005.0 |
| 20260505071716 | 60 | 175 | 6.1 | 9.6 | 0.00 | 0.00 | 0.00 | 51 | 1005.0 |
| 20260505071545 | 60 | 163 | 7.0 | 9.6 | 0.00 | 0.00 | 0.00 | 50 | 1005.0 |
| 20260505071445 | 60 | 204 | 6.1 | 9.6 | 0.00 | 0.00 | 0.00 | 50 | 1005.0 |
| 20260505071408 | 59 | 179 | 6.1 | 11.3 | 0.00 | 0.00 | 0.00 | 50 | 1005.1 |
| 20260505071311 | 59 | 165 | 5.2 | 8.7 | 0.00 | 0.00 | 0.00 | 51 | 1005.1 |
| 20260505071234 | 59 | 232 | 5.2 | 8.7 | 0.00 | 0.00 | 0.00 | 50 | 1005.1 |
| 20260505071102 | 59 | 189 | 5.2 | 9.6 | 0.00 | 0.00 | 0.00 | 50 | 1005.1 |
| 20260505070936 | 59 | 160 | 4.3 | 9.6 | 0.00 | 0.00 | 0.00 | 50 | 1005.0 |
| 20260505070859 | 59 | 165 | 4.3 | 9.6 | 0.00 | 0.00 | 0.00 | 50 | 1005.0 |
| 20260505070803 | 59 | 201 | 4.3 | 9.6 | 0.00 | 0.00 | 0.00 | 51 | 1005.0 |
| 20260505070704 | 59 | 191 | 5.2 | 9.6 | 0.00 | 0.00 | 0.00 | 51 | 1005.0 |
| 20260505070532 | 59 | 141 | 3.5 | 9.6 | 0.00 | 0.00 | 0.00 | 50 | 1005.0 |
| 20260505070430 | 59 | 184 | 4.3 | 9.6 | 0.00 | 0.00 | 0.00 | 50 | 1005.0 |
| 20260505070239 | 59 | 155 | 5.2 | 9.6 | 0.00 | 0.00 | 0.00 | 50 | 1005.0 |
| 20260505070155 | 59 | 207 | 6.1 | 9.6 | 0.00 | 0.00 | 0.00 | 50 | 1005.0 |
| 20260505070025 | 59 | 159 | 5.2 | 9.6 | 0.00 | 0.00 | 0.00 | 50 | 1005.1 |
| 20260505065926 | 59 | 141 | 4.3 | 9.6 | 0.00 | 0.00 | 0.00 | 50 | 1005.0 |
| 20260505065730 | 59 | 133 | 4.3 | 9.6 | 0.00 | 0.00 | 0.00 | 51 | 1005.0 |
| 20260505065634 | 59 | 170 | 4.3 | 9.6 | 0.00 | 0.00 | 0.00 | 50 | 1005.0 |
| 20260505065537 | 59 | 111 | 5.2 | 9.6 | 0.00 | 0.00 | 0.00 | 50 | 1005.0 |
| 20260505065459 | 59 | 151 | 6.1 | 9.6 | 0.00 | 0.00 | 0.00 | 50 | 1005.0 |
| 20260505065330 | 59 | 146 | 4.3 | 7.8 | 0.00 | 0.00 | 0.00 | 50 | 1005.0 |
| 20260505065226 | 59 | 117 | 4.3 | 7.8 | 0.00 | 0.00 | 0.00 | 50 | 1005.1 |
| 20260505065038 | 59 | 140 | 4.3 | 7.8 | 0.00 | 0.00 | 0.00 | 50 | 1005.1 |
| 20260505064952 | 59 | 137 | 4.3 | 7.8 | 0.00 | 0.00 | 0.00 | 50 | 1005.1 |
| 20260505064800 | 60 | 159 | 4.3 | 7.8 | 0.00 | 0.00 | 0.00 | 50 | 1005.2 |
| 20260505064700 | 60 | 142 | 5.2 | 7.8 | 0.00 | 0.00 | 0.00 | 50 | 1005.2 |
| 20260505064605 | 60 | 153 | 4.3 | 7.8 | 0.00 | 0.00 | 0.00 | 50 | 1005.2 |
| 20260505064528 | 60 | 161 | 4.3 | 7.8 | 0.00 | 0.00 | 0.00 | 50 | 1005.2 |
| 20260505064357 | 60 | 147 | 3.5 | 7.8 | 0.00 | 0.00 | 0.00 | 50 | 1005.2 |
| 20260505064259 | 60 | 150 | 4.3 | 9.6 | 0.00 | 0.00 | 0.00 | 50 | 1005.2 |
| 20260505064200 | 60 | 133 | 5.2 | 9.6 | 0.00 | 0.00 | 0.00 | 50 | 1005.1 |
| 20260505064122 | 60 | 185 | 5.2 | 9.6 | 0.00 | 0.00 | 0.00 | 50 | 1005.1 |
| 20260505063930 | 60 | 159 | 5.2 | 9.6 | 0.00 | 0.00 | 0.00 | 50 | 1005.1 |
| 20260505063833 | 60 | 162 | 6.1 | 9.6 | 0.00 | 0.00 | 0.00 | 50 | 1005.1 |
| 20260505063735 | 60 | 181 | 5.2 | 9.6 | 0.00 | 0.00 | 0.00 | 50 | 1005.0 |
| 20260505063659 | 60 | 177 | 5.2 | 9.6 | 0.00 | 0.00 | 0.00 | 50 | 1005.0 |
| 20260505063619 | 60 | 163 | 6.1 | 9.6 | 0.00 | 0.00 | 0.00 | 50 | 1005.1 |
| 20260505063500 | 60 | 154 | 6.1 | 9.6 | 0.00 | 0.00 | 0.00 | 50 | 1005.0 |
| 20260505063342 | 60 | 220 | 5.2 | 8.7 | 0.00 | 0.00 | 0.00 | 50 | 1005.0 |
| 20260505063223 | 60 | 191 | 4.3 | 8.7 | 0.00 | 0.00 | 0.00 | 50 | 1005.0 |
| 20260505063145 | 60 | 168 | 4.3 | 8.7 | 0.00 | 0.00 | 0.00 | 50 | 1005.0 |
| 20260505063025 | 60 | 136 | 5.2 | 8.7 | 0.00 | 0.00 | 0.00 | 50 | 1005.0 |
| 20260505062929 | 60 | 194 | 5.2 | 8.7 | 0.00 | 0.00 | 0.00 | 50 | 1005.0 |
| 20260505062853 | 60 | 155 | 5.2 | 8.7 | 0.00 | 0.00 | 0.00 | 50 | 1005.0 |
| 20260505062816 | 60 | 159 | 6.1 | 8.7 | 0.00 | 0.00 | 0.00 | 50 | 1005.0 |
| 20260505062638 | 60 | 129 | 7.0 | 9.6 | 0.00 | 0.00 | 0.00 | 50 | 1004.9 |
| 20260505062600 | 60 | 167 | 7.0 | 10.4 | 0.00 | 0.00 | 0.00 | 50 | 1004.9 |
| 20260505062515 | 60 | 146 | 5.2 | 9.6 | 0.00 | 0.00 | 0.00 | 50 | 1004.9 |
| 20260505062324 | 60 | 156 | 4.3 | 10.4 | 0.00 | 0.00 | 0.00 | 50 | 1005.0 |
| 20260505062248 | 60 | 158 | 4.3 | 10.4 | 0.00 | 0.00 | 0.00 | 50 | 1005.0 |
| 20260505062126 | 60 | 136 | 4.3 | 10.4 | 0.00 | 0.00 | 0.00 | 50 | 1005.0 |
| 20260505062032 | 60 | 176 | 5.2 | 10.4 | 0.00 | 0.00 | 0.00 | 50 | 1005.0 |
| 20260505061953 | 60 | 129 | 4.3 | 10.4 | 0.00 | 0.00 | 0.00 | 50 | 1004.9 |
| 20260505061855 | 60 | 106 | 4.3 | 10.4 | 0.00 | 0.00 | 0.00 | 50 | 1004.9 |
| 20260505061758 | 60 | 151 | 6.1 | 10.4 | 0.00 | 0.00 | 0.00 | 50 | 1004.9 |
| 20260505061639 | 60 | 176 | 7.0 | 10.4 | 0.00 | 0.00 | 0.00 | 50 | 1004.9 |
| 20260505061543 | 60 | 173 | 5.2 | 11.3 | 0.00 | 0.00 | 0.00 | 50 | 1004.9 |
| 20260505061505 | 60 | 171 | 4.3 | 9.6 | 0.00 | 0.00 | 0.00 | 50 | 1004.9 |
| 20260505061313 | 60 | 182 | 5.2 | 9.6 | 0.00 | 0.00 | 0.00 | 50 | 1004.8 |
| 20260505061228 | 60 | 148 | 6.1 | 9.6 | 0.00 | 0.00 | 0.00 | 49 | 1004.8 |
| 20260505061100 | 60 | 163 | 4.3 | 11.3 | 0.00 | 0.00 | 0.00 | 49 | 1004.8 |
| 20260505061005 | 60 | 167 | 6.1 | 11.3 | 0.00 | 0.00 | 0.00 | 49 | 1004.8 |
| 20260505060836 | 60 | 163 | 6.1 | 11.3 | 0.00 | 0.00 | 0.00 | 49 | 1004.8 |
| 20260505060730 | 60 | 131 | 7.0 | 11.3 | 0.00 | 0.00 | 0.00 | 49 | 1004.8 |
| 20260505060540 | 60 | 186 | 7.0 | 11.3 | 0.00 | 0.00 | 0.00 | 49 | 1004.9 |
| 20260505060435 | 60 | 132 | 6.1 | 11.3 | 0.00 | 0.00 | 0.00 | 49 | 1004.8 |
| 20260505060332 | 60 | 163 | 6.1 | 11.3 | 0.00 | 0.00 | 0.00 | 49 | 1004.8 |
| 20260505060234 | 60 | 137 | 6.1 | 11.3 | 0.00 | 0.00 | 0.00 | 49 | 1004.7 |
| 20260505060137 | 60 | 198 | 5.2 | 10.4 | 0.00 | 0.00 | 0.00 | 49 | 1004.8 |
| 20260505060059 | 60 | 171 | 4.3 | 10.4 | 0.00 | 0.00 | 0.00 | 49 | 1004.8 |
| 20260505055922 | 60 | 134 | 6.1 | 10.4 | 0.00 | 0.00 | 0.00 | 49 | 1004.8 |
| 20260505055837 | 60 | 199 | 6.1 | 10.4 | 0.00 | 0.00 | 0.00 | 49 | 1004.8 |
| 20260505055645 | 60 | 118 | 6.1 | 10.4 | 0.00 | 0.00 | 0.00 | 49 | 1004.8 |
| 20260505055546 | 60 | 191 | 6.1 | 9.6 | 0.00 | 0.00 | 0.00 | 49 | 1004.8 |
| 20260505055429 | 60 | 119 | 5.2 | 8.7 | 0.00 | 0.00 | 0.00 | 49 | 1004.9 |
| 20260505055352 | 60 | 181 | 4.3 | 8.7 | 0.00 | 0.00 | 0.00 | 49 | 1004.9 |
| 20260505055315 | 60 | 184 | 4.3 | 8.7 | 0.00 | 0.00 | 0.00 | 49 | 1004.8 |
| 20260505055158 | 60 | 156 | 4.3 | 8.7 | 0.00 | 0.00 | 0.00 | 49 | 1004.8 |
| 20260505055120 | 60 | 191 | 4.3 | 9.6 | 0.00 | 0.00 | 0.00 | 49 | 1004.9 |
| 20260505054923 | 60 | 141 | 5.2 | 9.6 | 0.00 | 0.00 | 0.00 | 49 | 1004.8 |
| 20260505054831 | 60 | 169 | 5.2 | 10.4 | 0.00 | 0.00 | 0.00 | 49 | 1004.8 |
| 20260505054723 | 60 | 107 | 5.2 | 10.4 | 0.00 | 0.00 | 0.00 | 49 | 1004.8 |
| 20260505054645 | 60 | 141 | 6.1 | 10.4 | 0.00 | 0.00 | 0.00 | 49 | 1004.8 |
| 20260505054542 | 60 | 164 | 5.2 | 10.4 | 0.00 | 0.00 | 0.00 | 49 | 1004.9 |
| 20260505054423 | 60 | 163 | 4.3 | 12.2 | 0.00 | 0.00 | 0.00 | 49 | 1004.8 |
| 20260505054348 | 60 | 235 | 4.3 | 12.2 | 0.00 | 0.00 | 0.00 | 49 | 1004.8 |
| 20260505054309 | 60 | 168 | 4.3 | 12.2 | 0.00 | 0.00 | 0.00 | 49 | 1004.8 |
| 20260505054151 | 60 | 150 | 6.1 | 12.2 | 0.00 | 0.00 | 0.00 | 49 | 1004.8 |
| 20260505054114 | 60 | 155 | 5.2 | 12.2 | 0.00 | 0.00 | 0.00 | 49 | 1004.8 |
| 20260505053839 | 60 | 158 | 4.3 | 12.2 | 0.00 | 0.00 | 0.00 | 49 | 1004.8 |
| 20260505053713 | 60 | 193 | 4.3 | 12.2 | 0.00 | 0.00 | 0.00 | 49 | 1004.8 |
| 20260505053626 | 60 | 199 | 6.1 | 12.2 | 0.00 | 0.00 | 0.00 | 49 | 1004.8 |
| 20260505053527 | 60 | 102 | 5.2 | 12.2 | 0.00 | 0.00 | 0.00 | 49 | 1004.8 |
| 20260505053357 | 60 | 142 | 4.3 | 9.6 | 0.00 | 0.00 | 0.00 | 49 | 1004.8 |
| 20260505053229 | 60 | 167 | 5.2 | 9.6 | 0.00 | 0.00 | 0.00 | 49 | 1004.8 |
| 20260505053151 | 60 | 146 | 5.2 | 9.6 | 0.00 | 0.00 | 0.00 | 49 | 1004.8 |
| 20260505053053 | 60 | 186 | 4.3 | 9.6 | 0.00 | 0.00 | 0.00 | 49 | 1004.8 |
| 20260505052953 | 60 | 150 | 5.2 | 9.6 | 0.00 | 0.00 | 0.00 | 49 | 1004.8 |
| 20260505052739 | 60 | 119 | 5.2 | 13.0 | 0.00 | 0.00 | 0.00 | 49 | 1004.8 |
| 20260505052642 | 60 | 198 | 5.2 | 13.0 | 0.00 | 0.00 | 0.00 | 49 | 1004.8 |
| 20260505052524 | 60 | 147 | 4.3 | 13.0 | 0.00 | 0.00 | 0.00 | 49 | 1004.9 |
| 20260505052448 | 60 | 182 | 3.5 | 13.0 | 0.00 | 0.00 | 0.00 | 49 | 1004.9 |
| 20260505052323 | 60 | 196 | 3.5 | 13.0 | 0.00 | 0.00 | 0.00 | 49 | 1004.9 |
| 20260505052226 | 60 | 212 | 5.2 | 13.0 | 0.00 | 0.00 | 0.00 | 49 | 1004.9 |
| 20260505052148 | 60 | 182 | 7.0 | 13.0 | 0.00 | 0.00 | 0.00 | 49 | 1004.9 |
| 20260505052109 | 60 | 166 | 7.8 | 13.0 | 0.00 | 0.00 | 0.00 | 49 | 1004.8 |
| 20260505052012 | 60 | 182 | 7.0 | 13.0 | 0.00 | 0.00 | 0.00 | 49 | 1004.9 |
| 20260505051936 | 60 | 165 | 5.2 | 13.0 | 0.00 | 0.00 | 0.00 | 49 | 1004.9 |
| 20260505051807 | 60 | 196 | 4.3 | 13.0 | 0.00 | 0.00 | 0.00 | 49 | 1004.9 |
| 20260505051721 | 60 | 184 | 3.5 | 13.0 | 0.00 | 0.00 | 0.00 | 49 | 1004.9 |
| 20260505051531 | 60 | 184 | 4.3 | 13.0 | 0.00 | 0.00 | 0.00 | 49 | 1004.8 |
| 20260505051445 | 60 | 152 | 5.2 | 13.0 | 0.00 | 0.00 | 0.00 | 49 | 1004.8 |
| 20260505051316 | 60 | 167 | 6.1 | 13.0 | 0.00 | 0.00 | 0.00 | 49 | 1004.9 |
| 20260505051237 | 59 | 157 | 6.1 | 13.0 | 0.00 | 0.00 | 0.00 | 49 | 1004.9 |
| 20260505051109 | 59 | 169 | 4.3 | 13.0 | 0.00 | 0.00 | 0.00 | 49 | 1004.9 |
| 20260505051023 | 59 | 161 | 4.3 | 8.7 | 0.00 | 0.00 | 0.00 | 49 | 1004.9 |
| 20260505050834 | 59 | 214 | 4.3 | 8.7 | 0.00 | 0.00 | 0.00 | 49 | 1004.9 |
| 20260505050733 | 59 | 163 | 3.5 | 8.7 | 0.00 | 0.00 | 0.00 | 49 | 1004.9 |
| 20260505050655 | 59 | 167 | 3.5 | 8.7 | 0.00 | 0.00 | 0.00 | 49 | 1004.9 |
| 20260505050558 | 59 | 163 | 6.1 | 8.7 | 0.00 | 0.00 | 0.00 | 49 | 1004.9 |
| 20260505050437 | 59 | 167 | 4.3 | 8.7 | 0.00 | 0.00 | 0.00 | 49 | 1004.9 |
| 20260505050340 | 59 | 146 | 4.3 | 8.7 | 0.00 | 0.00 | 0.00 | 50 | 1004.9 |
| 20260505050301 | 59 | 125 | 5.2 | 8.7 | 0.00 | 0.00 | 0.00 | 49 | 1005.0 |
| 20260505050123 | 59 | 173 | 5.2 | 8.7 | 0.00 | 0.00 | 0.00 | 50 | 1004.9 |
| 20260505041732 | 57 | 159 | 2.6 | 5.2 | 0.00 | 0.00 | 0.00 | 49 | 1004.8 |
| 20260505041635 | 57 | 157 | 3.5 | 5.2 | 0.00 | 0.00 | 0.00 | 49 | 1004.9 |
| 20260505041558 | 57 | 196 | 3.5 | 5.2 | 0.00 | 0.00 | 0.00 | 49 | 1004.9 |
| 20260505041501 | 57 | 139 | 3.5 | 5.2 | 0.00 | 0.00 | 0.00 | 49 | 1004.9 |
| 20260505041424 | 58 | 155 | 3.5 | 5.2 | 0.00 | 0.00 | 0.00 | 49 | 1004.9 |
| 20260505041227 | 58 | 147 | 2.6 | 7.0 | 0.00 | 0.00 | 0.00 | 49 | 1004.9 |
| 20260505041128 | 58 | 115 | 3.5 | 7.0 | 0.00 | 0.00 | 0.00 | 49 | 1004.9 |
| 20260505041031 | 58 | 121 | 3.5 | 7.0 | 0.00 | 0.00 | 0.00 | 49 | 1004.8 |
| 20260505040958 | 58 | 153 | 3.5 | 7.0 | 0.00 | 0.00 | 0.00 | 49 | 1004.8 |
| 20260505040920 | 58 | 173 | 3.5 | 7.0 | 0.00 | 0.00 | 0.00 | 49 | 1004.8 |
| 20260505040722 | 58 | 117 | 2.6 | 7.0 | 0.00 | 0.00 | 0.00 | 49 | 1004.8 |
| 20260505040645 | 58 | 126 | 3.5 | 7.0 | 0.00 | 0.00 | 0.00 | 49 | 1004.8 |
| 20260505040527 | 58 | 115 | 4.3 | 7.0 | 0.00 | 0.00 | 0.00 | 48 | 1004.9 |
| 20260505040451 | 58 | 167 | 3.5 | 5.2 | 0.00 | 0.00 | 0.00 | 48 | 1004.9 |
| 20260505040405 | 58 | 167 | 3.5 | 5.2 | 0.00 | 0.00 | 0.00 | 48 | 1004.8 |
| 20260505040245 | 58 | 180 | 3.5 | 6.1 | 0.00 | 0.00 | 0.00 | 48 | 1004.9 |
| 20260505040146 | 58 | 188 | 2.6 | 5.2 | 0.00 | 0.00 | 0.00 | 48 | 1004.9 |
| 20260505040025 | 57 | 165 | 2.6 | 6.1 | 0.00 | 0.00 | 0.00 | 48 | 1004.8 |
| 20260505035930 | 57 | 187 | 2.6 | 6.1 | 0.00 | 0.00 | 0.00 | 48 | 1004.8 |
| 20260505035831 | 57 | 186 | 1.7 | 6.1 | 0.00 | 0.00 | 0.00 | 48 | 1004.8 |
| 20260505035754 | 57 | 136 | 2.6 | 6.1 | 0.00 | 0.00 | 0.00 | 48 | 1004.8 |
| 20260505035655 | 57 | 175 | 2.6 | 6.1 | 0.00 | 0.00 | 0.00 | 47 | 1004.8 |
| 20260505035537 | 57 | 167 | 1.7 | 6.1 | 0.00 | 0.00 | 0.00 | 47 | 1004.8 |
| 20260505035441 | 57 | 189 | 2.6 | 6.1 | 0.00 | 0.00 | 0.00 | 47 | 1004.8 |
| 20260505035401 | 57 | 191 | 2.6 | 6.1 | 0.00 | 0.00 | 0.00 | 47 | 1004.8 |
| 20260505035223 | 57 | 162 | 1.7 | 6.1 | 0.00 | 0.00 | 0.00 | 46 | 1004.8 |
| 20260505035146 | 57 | 158 | 2.6 | 6.1 | 0.00 | 0.00 | 0.00 | 46 | 1004.8 |
| 20260505035112 | 56 | 154 | 3.5 | 6.1 | 0.00 | 0.00 | 0.00 | 46 | 1004.8 |
| 20260505034936 | 56 | 169 | 3.5 | 6.1 | 0.00 | 0.00 | 0.00 | 46 | 1004.8 |
| 20260505034907 | 56 | 146 | 3.5 | 6.1 | 0.00 | 0.00 | 0.00 | 45 | 1004.8 |
| 20260505034740 | 56 | 153 | 2.6 | 5.2 | 0.00 | 0.00 | 0.00 | 45 | 1004.9 |
| 20260505034642 | 56 | 150 | 2.6 | 4.3 | 0.00 | 0.00 | 0.00 | 44 | 1004.8 |
| 20260505034525 | 56 | 150 | 2.6 | 5.2 | 0.00 | 0.00 | 0.00 | 44 | 1004.9 |
| 20260505034447 | 55 | 127 | 1.7 | 5.2 | 0.00 | 0.00 | 0.00 | 44 | 1004.9 |
| 20260505034342 | 55 | 155 | 1.7 | 5.2 | 0.00 | 0.00 | 0.00 | 43 | 1004.9 |
| 20260505034230 | 55 | 164 | 1.7 | 5.2 | 0.00 | 0.00 | 0.00 | 43 | 1004.9 |
| 20260505034151 | 55 | 159 | 1.7 | 5.2 | 0.00 | 0.00 | 0.00 | 43 | 1004.9 |
| 20260505033933 | 55 | 142 | 2.6 | 5.2 | 0.00 | 0.00 | 0.00 | 42 | 1004.9 |
| 20260505033837 | 55 | 155 | 2.6 | 5.2 | 0.00 | 0.00 | 0.00 | 41 | 1004.8 |
| 20260505033740 | 54 | 117 | 1.7 | 6.1 | 0.00 | 0.00 | 0.00 | 40 | 1004.8 |
| 20260505033703 | 54 | 140 | 1.7 | 6.1 | 0.00 | 0.00 | 0.00 | 40 | 1004.8 |
| 20260505033525 | 54 | 147 | 1.7 | 6.1 | 0.00 | 0.00 | 0.00 | 39 | 1004.8 |
| 20260505033427 | 54 | 134 | 1.7 | 6.1 | 0.00 | 0.00 | 0.00 | 38 | 1004.8 |
| 20260505033352 | 54 | 126 | 1.7 | 6.1 | 0.00 | 0.00 | 0.00 | 38 | 1004.8 |
| 20260505033259 | 54 | 126 | 2.6 | 6.1 | 0.00 | 0.00 | 0.00 | 38 | 1004.8 |
| 20260505033220 | 54 | 135 | 2.6 | 6.1 | 0.00 | 0.00 | 0.00 | 38 | 1004.8 |
| 20260505033025 | 53 | 136 | 1.7 | 4.3 | 0.00 | 0.00 | 0.00 | 36 | 1004.9 |
| 20260505032928 | 53 | 155 | 1.7 | 4.3 | 0.00 | 0.00 | 0.00 | 35 | 1004.9 |
| 20260505032832 | 53 | 175 | 1.7 | 4.3 | 0.00 | 0.00 | 0.00 | 34 | 1004.9 |
| 20260505032733 | 53 | 151 | 1.7 | 4.3 | 0.00 | 0.00 | 0.00 | 33 | 1004.8 |
| 20260505032537 | 53 | 140 | 1.7 | 3.5 | 0.00 | 0.00 | 0.00 | 31 | 1004.8 |
| 20260505032438 | 52 | 137 | 0.9 | 2.6 | 0.00 | 0.00 | 0.00 | 30 | 1004.8 |
| 20260505032341 | 52 | 138 | 1.7 | 2.6 | 0.00 | 0.00 | 0.00 | 29 | 1004.8 |
| 20260505032309 | 52 | 138 | 1.7 | 2.6 | 0.00 | 0.00 | 0.00 | 29 | 1004.8 |
| 20260505032230 | 52 | 140 | 0.9 | 2.6 | 0.00 | 0.00 | 0.00 | 28 | 1004.8 |
| 20260505032034 | 52 | 139 | 0.9 | 2.6 | 0.00 | 0.00 | 0.00 | 26 | 1004.8 |
| 20260505031937 | 52 | 136 | 1.7 | 2.6 | 0.00 | 0.00 | 0.00 | 25 | 1004.8 |
| 20260505031839 | 52 | 130 | 0.9 | 3.5 | 0.00 | 0.00 | 0.00 | 24 | 1004.9 |
| 20260505031801 | 52 | 130 | 0.9 | 3.5 | 0.00 | 0.00 | 0.00 | 24 | 1004.9 |
| 20260505031720 | 51 | 130 | 0.9 | 3.5 | 0.00 | 0.00 | 0.00 | 23 | 1004.8 |
| 20260505031623 | 51 | 130 | 0.9 | 3.5 | 0.00 | 0.00 | 0.00 | 22 | 1004.8 |
| 20260505031524 | 51 | 127 | 0.9 | 3.5 | 0.00 | 0.00 | 0.00 | 22 | 1004.8 |
| 20260505031330 | 51 | 127 | 0.9 | 3.5 | 0.00 | 0.00 | 0.00 | 21 | 1004.9 |
| 20260505031236 | 51 | 127 | 1.7 | 3.5 | 0.00 | 0.00 | 0.00 | 20 | 1004.9 |
| 20260505031140 | 51 | 127 | 1.7 | 3.5 | 0.00 | 0.00 | 0.00 | 20 | 1004.8 |
| 20260505031104 | 51 | 132 | 1.7 | 3.5 | 0.00 | 0.00 | 0.00 | 20 | 1004.8 |
| 20260505031025 | 51 | 139 | 1.7 | 3.5 | 0.00 | 0.00 | 0.00 | 20 | 1004.8 |
| 20260505030858 | 51 | 144 | 0.9 | 2.6 | 0.00 | 0.00 | 0.00 | 20 | 1004.8 |
| 20260505030728 | 51 | 145 | 0.9 | 2.6 | 0.00 | 0.00 | 0.00 | 19 | 1004.8 |
| 20260505030653 | 51 | 147 | 0.9 | 2.6 | 0.00 | 0.00 | 0.00 | 19 | 1004.8 |
| 20260505030557 | 51 | 147 | 0.9 | 2.6 | 0.00 | 0.00 | 0.00 | 19 | 1004.8 |
| 20260505030437 | 51 | 146 | 0.0 | 2.6 | 0.00 | 0.00 | 0.00 | 20 | 1004.9 |
| 20260505030340 | 51 | 146 | 0.9 | 2.6 | 0.00 | 0.00 | 0.00 | 19 | 1004.9 |
| 20260505030306 | 51 | 146 | 0.9 | 2.6 | 0.00 | 0.00 | 0.00 | 19 | 1004.9 |
| 20260505030229 | 51 | 146 | 0.9 | 2.6 | 0.00 | 0.00 | 0.00 | 19 | 1005.0 |
| 20260505030031 | 51 | 225 | 0.0 | 0.0 | 0.00 | 0.00 | 0.00 | 20 | 1004.9 |
| 20260505025955 | 51 | 225 | 0.0 | 0.0 | 0.00 | 0.00 | 0.00 | 20 | 1004.9 |
| 20260505025859 | 51 | 225 | 0.0 | 0.0 | 0.00 | 0.00 | 0.00 | 20 | 1004.9 |
| 20260505025820 | 51 | 225 | 0.0 | 0.0 | 0.00 | 0.00 | 0.00 | 20 | 1004.9 |
| 20260505025626 | 51 | 225 | 0.0 | 0.0 | 0.00 | 0.00 | 0.00 | 21 | 1004.9 |
| 20260505025527 | 51 | 225 | 0.0 | 0.0 | 0.00 | 0.00 | 0.00 | 21 | 1004.9 |
| 20260505025429 | 51 | 225 | 0.0 | 0.0 | 0.00 | 0.00 | 0.00 | 20 | 1004.8 |
| 20260505025334 | 51 | 225 | 0.0 | 0.0 | 0.00 | 0.00 | 0.00 | 20 | 1004.9 |
| 20260505025257 | 51 | 225 | 0.0 | 0.0 | 0.00 | 0.00 | 0.00 | 20 | 1004.9 |
| 20260505025159 | 52 | 225 | 0.0 | 0.0 | 0.00 | 0.00 | 0.00 | 20 | 1004.9 |
| 20260505025121 | 52 | 225 | 0.0 | 0.0 | 0.00 | 0.00 | 0.00 | 20 | 1004.9 |
| 20260505024924 | 52 | 225 | 0.0 | 0.0 | 0.00 | 0.00 | 0.00 | 20 | 1004.9 |
| 20260505024826 | 52 | 225 | 0.0 | 0.0 | 0.00 | 0.00 | 0.00 | 21 | 1005.0 |
| 20260505024728 | 52 | 225 | 0.0 | 0.0 | 0.00 | 0.00 | 0.00 | 22 | 1005.0 |
| 20260505024652 | 52 | 225 | 0.0 | 0.0 | 0.00 | 0.00 | 0.00 | 23 | 1005.0 |
| 20260505024613 | 52 | 225 | 0.0 | 0.0 | 0.00 | 0.00 | 0.00 | 23 | 1005.0 |
| 20260505024518 | 52 | 225 | 0.0 | 0.0 | 0.00 | 0.00 | 0.00 | 24 | 1005.0 |
| 20260505024439 | 52 | 225 | 0.0 | 0.0 | 0.00 | 0.00 | 0.00 | 24 | 1005.0 |
| 20260505024313 | 52 | 225 | 0.0 | 0.0 | 0.00 | 0.00 | 0.00 | 25 | 1005.0 |
| 20260505024229 | 52 | 225 | 0.0 | 0.0 | 0.00 | 0.00 | 0.00 | 26 | 1005.0 |
| 20260505024040 | 53 | 225 | 0.0 | 0.0 | 0.00 | 0.00 | 0.00 | 27 | 1005.0 |
| 20260505023954 | 53 | 225 | 0.0 | 0.0 | 0.00 | 0.00 | 0.00 | 28 | 1005.0 |
| 20260505023823 | 53 | 225 | 0.0 | 0.0 | 0.00 | 0.00 | 0.00 | 30 | 1005.0 |
| 20260505023742 | 53 | 225 | 0.0 | 0.0 | 0.00 | 0.00 | 0.00 | 30 | 1005.1 |
| 20260505023614 | 53 | 225 | 0.0 | 0.0 | 0.00 | 0.00 | 0.00 | 31 | 1005.1 |
| 20260505023526 | 53 | 225 | 0.0 | 0.0 | 0.00 | 0.00 | 0.00 | 32 | 1005.1 |
| 20260505023356 | 53 | 225 | 0.0 | 0.0 | 0.00 | 0.00 | 0.00 | 34 | 1005.2 |
| 20260505023258 | 53 | 225 | 0.0 | 0.0 | 0.00 | 0.00 | 0.00 | 35 | 1005.2 |
| 20260505023213 | 53 | 225 | 0.0 | 0.0 | 0.00 | 0.00 | 0.00 | 34 | 1005.2 |
| 20260505023114 | 53 | 225 | 0.0 | 0.0 | 0.00 | 0.00 | 0.00 | 34 | 1005.3 |
| 20260505023039 | 54 | 225 | 0.0 | 0.0 | 0.00 | 0.00 | 0.00 | 35 | 1005.2 |
| 20260505022821 | 54 | 225 | 0.0 | 0.0 | 0.00 | 0.00 | 0.00 | 35 | 1005.2 |
| 20260505022745 | 54 | 225 | 0.0 | 0.0 | 0.00 | 0.00 | 0.00 | 35 | 1005.2 |
| 20260505022647 | 54 | 225 | 0.0 | 0.0 | 0.00 | 0.00 | 0.00 | 35 | 1005.3 |
| 20260505022608 | 54 | 225 | 0.0 | 0.0 | 0.00 | 0.00 | 0.00 | 35 | 1005.3 |
| 20260505022418 | 54 | 225 | 0.0 | 0.0 | 0.00 | 0.00 | 0.00 | 35 | 1005.3 |
| 20260505022333 | 54 | 225 | 0.0 | 0.0 | 0.00 | 0.00 | 0.00 | 35 | 1005.3 |
| 20260505022141 | 54 | 225 | 0.0 | 0.0 | 0.00 | 0.00 | 0.00 | 35 | 1005.3 |
| 20260505022057 | 54 | 225 | 0.0 | 0.0 | 0.00 | 0.00 | 0.00 | 33 | 1005.3 |
| 20260505022020 | 54 | 209 | 0.0 | 0.0 | 0.00 | 0.00 | 0.00 | 32 | 1005.3 |
| 20260505021836 | 54 | 209 | 0.0 | 0.0 | 0.00 | 0.00 | 0.00 | 36 | 1005.3 |
| 20260505021739 | 54 | 209 | 0.0 | 0.0 | 0.00 | 0.00 | 0.00 | 36 | 1005.3 |
| 20260505021659 | 54 | 209 | 0.0 | 0.0 | 0.00 | 0.00 | 0.00 | 36 | 1005.3 |
| 20260505021622 | 54 | 209 | 0.0 | 0.0 | 0.00 | 0.00 | 0.00 | 36 | 1005.3 |
| 20260505021424 | 55 | 209 | 0.0 | 0.0 | 0.00 | 0.00 | 0.00 | 35 | 1005.3 |
| 20260505021348 | 55 | 209 | 0.0 | 0.0 | 0.00 | 0.00 | 0.00 | 35 | 1005.3 |
| 20260505021231 | 55 | 209 | 0.0 | 0.0 | 0.00 | 0.00 | 0.00 | 36 | 1005.3 |
| 20260505021154 | 54 | 209 | 0.0 | 0.0 | 0.00 | 0.00 | 0.00 | 36 | 1005.3 |
| 20260505020936 | 54 | 209 | 0.0 | 0.0 | 0.00 | 0.00 | 0.00 | 36 | 1005.3 |
| 20260505020858 | 54 | 209 | 0.0 | 0.0 | 0.00 | 0.00 | 0.00 | 36 | 1005.3 |
| 20260505020807 | 54 | 209 | 0.0 | 0.0 | 0.00 | 0.00 | 0.00 | 35 | 1005.3 |
| 20260505020729 | 54 | 209 | 0.0 | 0.0 | 0.00 | 0.00 | 0.00 | 35 | 1005.4 |
| 20260505020540 | 54 | 209 | 0.0 | 0.0 | 0.00 | 0.00 | 0.00 | 35 | 1005.4 |
| 20260505020434 | 54 | 209 | 0.0 | 0.0 | 0.00 | 0.00 | 0.00 | 34 | 1005.4 |
| 20260505020358 | 54 | 209 | 0.0 | 0.0 | 0.00 | 0.00 | 0.00 | 33 | 1005.4 |
| 20260505020311 | 54 | 209 | 0.0 | 0.0 | 0.00 | 0.00 | 0.00 | 33 | 1005.3 |
| 20260505020232 | 54 | 209 | 0.0 | 0.0 | 0.00 | 0.00 | 0.00 | 32 | 1005.3 |
| 20260505015936 | 54 | 209 | 0.0 | 1.7 | 0.00 | 0.00 | 0.00 | 28 | 1005.3 |
| 20260505015825 | 54 | 209 | 0.0 | 1.7 | 0.00 | 0.00 | 0.00 | 28 | 1005.2 |
| 20260505015745 | 54 | 209 | 0.0 | 1.7 | 0.00 | 0.00 | 0.00 | 30 | 1005.2 |
| 20260505015617 | 54 | 209 | 0.0 | 2.6 | 0.00 | 0.00 | 0.00 | 29 | 1005.2 |
| 20260505015532 | 54 | 209 | 0.0 | 2.6 | 0.00 | 0.00 | 0.00 | 28 | 1005.2 |
| 20260505015341 | 54 | 209 | 0.0 | 2.6 | 0.00 | 0.00 | 0.00 | 28 | 1005.2 |
| 20260505015257 | 54 | 209 | 0.0 | 2.6 | 0.00 | 0.00 | 0.00 | 30 | 1005.2 |
| 20260505015218 | 54 | 209 | 0.0 | 2.6 | 0.00 | 0.00 | 0.00 | 30 | 1005.2 |
| 20260505015035 | 54 | 218 | 0.0 | 2.6 | 0.00 | 0.00 | 0.00 | 28 | 1005.1 |
| 20260505014936 | 54 | 218 | 0.9 | 2.6 | 0.00 | 0.00 | 0.00 | 29 | 1005.1 |
| 20260505014822 | 54 | 215 | 0.9 | 2.6 | 0.00 | 0.00 | 0.00 | 27 | 1005.1 |
| 20260505014745 | 54 | 165 | 0.9 | 1.7 | 0.00 | 0.00 | 0.00 | 25 | 1005.1 |
| 20260505014707 | 53 | 165 | 0.0 | 1.7 | 0.00 | 0.00 | 0.00 | 24 | 1005.1 |
| 20260505014611 | 53 | 214 | 0.0 | 1.7 | 0.00 | 0.00 | 0.00 | 26 | 1005.1 |
| 20260505014532 | 53 | 214 | 0.0 | 1.7 | 0.00 | 0.00 | 0.00 | 26 | 1005.1 |
| 20260505014336 | 53 | 214 | 0.0 | 1.7 | 0.00 | 0.00 | 0.00 | 27 | 1005.0 |
| 20260505014238 | 53 | 214 | 0.0 | 1.7 | 0.00 | 0.00 | 0.00 | 27 | 1005.1 |
| 20260505014141 | 53 | 214 | 0.0 | 1.7 | 0.00 | 0.00 | 0.00 | 27 | 1005.1 |
| 20260505014045 | 53 | 214 | 0.0 | 1.7 | 0.00 | 0.00 | 0.00 | 28 | 1005.1 |
| 20260505013925 | 53 | 214 | 0.0 | 0.9 | 0.00 | 0.00 | 0.00 | 28 | 1005.2 |
| 20260505013828 | 53 | 214 | 0.0 | 0.9 | 0.00 | 0.00 | 0.00 | 28 | 1005.1 |
| 20260505013749 | 53 | 214 | 0.0 | 0.9 | 0.00 | 0.00 | 0.00 | 28 | 1005.1 |
| 20260505013620 | 53 | 214 | 0.0 | 0.9 | 0.00 | 0.00 | 0.00 | 29 | 1005.1 |
| 20260505013536 | 53 | 214 | 0.0 | 0.9 | 0.00 | 0.00 | 0.00 | 30 | 1005.0 |
| 20260505013406 | 53 | 214 | 0.0 | 0.9 | 0.00 | 0.00 | 0.00 | 29 | 1005.1 |
| 20260505013328 | 53 | 214 | 0.0 | 0.9 | 0.00 | 0.00 | 0.00 | 29 | 1005.1 |
| 20260505013133 | 54 | 214 | 0.0 | 0.9 | 0.00 | 0.00 | 0.00 | 29 | 1005.1 |
| 20260505013035 | 54 | 214 | 0.0 | 1.7 | 0.00 | 0.00 | 0.00 | 29 | 1005.2 |
| 20260505012936 | 54 | 214 | 0.0 | 1.7 | 0.00 | 0.00 | 0.00 | 27 | 1005.1 |
| 20260505012904 | 54 | 214 | 0.0 | 1.7 | 0.00 | 0.00 | 0.00 | 28 | 1005.1 |
| 20260505012824 | 54 | 214 | 0.0 | 1.7 | 0.00 | 0.00 | 0.00 | 28 | 1005.1 |
| 20260505012627 | 54 | 214 | 0.0 | 1.7 | 0.00 | 0.00 | 0.00 | 29 | 1005.1 |
| 20260505012552 | 54 | 214 | 0.0 | 1.7 | 0.00 | 0.00 | 0.00 | 30 | 1005.1 |
| 20260505012456 | 54 | 214 | 0.0 | 1.7 | 0.00 | 0.00 | 0.00 | 31 | 1005.0 |
| 20260505012358 | 54 | 214 | 0.0 | 1.7 | 0.00 | 0.00 | 0.00 | 30 | 1005.0 |
| 20260505012228 | 54 | 214 | 0.0 | 1.7 | 0.00 | 0.00 | 0.00 | 29 | 1005.0 |
| 20260505012123 | 54 | 214 | 0.0 | 0.0 | 0.00 | 0.00 | 0.00 | 28 | 1005.1 |
| 20260505011934 | 55 | 214 | 0.0 | 0.9 | 0.00 | 0.00 | 0.00 | 28 | 1005.0 |
| 20260505011738 | 55 | 214 | 0.0 | 0.9 | 0.00 | 0.00 | 0.00 | 30 | 1005.1 |
| 20260505011704 | 55 | 214 | 0.0 | 0.9 | 0.00 | 0.00 | 0.00 | 31 | 1005.1 |
| 20260505011626 | 55 | 214 | 0.0 | 0.9 | 0.00 | 0.00 | 0.00 | 31 | 1005.1 |
| 20260505011430 | 55 | 214 | 0.0 | 0.9 | 0.00 | 0.00 | 0.00 | 33 | 1005.2 |
| 20260505011353 | 55 | 214 | 0.0 | 0.9 | 0.00 | 0.00 | 0.00 | 33 | 1005.2 |
| 20260505011237 | 55 | 214 | 0.0 | 0.9 | 0.00 | 0.00 | 0.00 | 33 | 1005.0 |
| 20260505011200 | 55 | 214 | 0.0 | 0.9 | 0.00 | 0.00 | 0.00 | 34 | 1005.0 |
| 20260505011105 | 56 | 214 | 0.0 | 0.9 | 0.00 | 0.00 | 0.00 | 34 | 1005.1 |
| 20260505011026 | 56 | 214 | 0.0 | 0.9 | 0.00 | 0.00 | 0.00 | 35 | 1005.1 |
| 20260505010857 | 56 | 214 | 0.0 | 0.9 | 0.00 | 0.00 | 0.00 | 37 | 1005.0 |
| 20260505010752 | 56 | 214 | 0.0 | 0.9 | 0.00 | 0.00 | 0.00 | 39 | 1005.0 |
| 20260505010622 | 56 | 214 | 0.0 | 0.9 | 0.00 | 0.00 | 0.00 | 40 | 1005.0 |
| 20260505010525 | 56 | 214 | 0.0 | 0.9 | 0.00 | 0.00 | 0.00 | 41 | 1004.9 |
| 20260505010329 | 57 | 214 | 0.0 | 0.9 | 0.00 | 0.00 | 0.00 | 44 | 1004.9 |
| 20260505010230 | 57 | 214 | 0.9 | 0.9 | 0.00 | 0.00 | 0.00 | 45 | 1004.9 |
| 20260505010134 | 57 | 214 | 0.0 | 0.9 | 0.00 | 0.00 | 0.00 | 45 | 1004.9 |
| 20260505010058 | 57 | 214 | 0.0 | 0.9 | 0.00 | 0.00 | 0.00 | 46 | 1004.9 |
| 20260505010020 | 57 | 214 | 0.0 | 0.9 | 0.00 | 0.00 | 0.00 | 46 | 1004.9 |
| 20260505005833 | 57 | 214 | 0.0 | 0.9 | 0.00 | 0.00 | 0.00 | 48 | 1004.9 |
| 20260505005756 | 58 | 214 | 0.0 | 0.9 | 0.00 | 0.00 | 0.00 | 48 | 1004.9 |
| 20260505005625 | 58 | 214 | 0.0 | 0.9 | 0.00 | 0.00 | 0.00 | 48 | 1004.9 |
| 20260505005541 | 58 | 214 | 0.0 | 0.9 | 0.00 | 0.00 | 0.00 | 48 | 1004.9 |
| 20260505005411 | 58 | 214 | 0.0 | 0.9 | 0.00 | 0.00 | 0.00 | 49 | 1004.9 |
| 20260505005332 | 58 | 214 | 0.0 | 0.9 | 0.00 | 0.00 | 0.00 | 49 | 1004.9 |
| 20260505005137 | 59 | 214 | 0.0 | 1.7 | 0.00 | 0.00 | 0.00 | 50 | 1004.9 |
| 20260505005040 | 59 | 214 | 0.0 | 1.7 | 0.00 | 0.00 | 0.00 | 50 | 1004.9 |
| 20260505004942 | 59 | 214 | 0.0 | 1.7 | 0.00 | 0.00 | 0.00 | 50 | 1004.8 |
| 20260505004905 | 59 | 214 | 0.0 | 1.7 | 0.00 | 0.00 | 0.00 | 50 | 1004.8 |
| 20260505004826 | 59 | 214 | 0.0 | 1.7 | 0.00 | 0.00 | 0.00 | 51 | 1004.8 |
| 20260505004708 | 60 | 214 | 0.0 | 1.7 | 0.00 | 0.00 | 0.00 | 51 | 1004.8 |
| 20260505004629 | 60 | 214 | 0.0 | 1.7 | 0.00 | 0.00 | 0.00 | 51 | 1004.8 |
| 20260505004439 | 60 | 214 | 0.9 | 1.7 | 0.00 | 0.00 | 0.00 | 51 | 1004.8 |
| 20260505004340 | 60 | 214 | 0.0 | 1.7 | 0.00 | 0.00 | 0.00 | 51 | 1004.7 |
| 20260505004243 | 61 | 214 | 0.0 | 1.7 | 0.00 | 0.00 | 0.00 | 51 | 1004.7 |
| 20260505004205 | 61 | 214 | 0.0 | 1.7 | 0.00 | 0.00 | 0.00 | 52 | 1004.8 |
| 20260505004035 | 61 | 214 | 0.9 | 3.5 | 0.00 | 0.00 | 0.00 | 52 | 1004.7 |
| 20260505003928 | 61 | 214 | 0.9 | 3.5 | 0.00 | 0.00 | 0.00 | 52 | 1004.8 |
| 20260505003757 | 61 | 214 | 0.9 | 3.5 | 0.00 | 0.00 | 0.00 | 49 | 1004.7 |
| 20260505003658 | 61 | 202 | 0.9 | 3.5 | 0.00 | 0.00 | 0.00 | 50 | 1004.7 |
| 20260505003542 | 62 | 200 | 0.9 | 3.5 | 0.00 | 0.00 | 0.00 | 51 | 1004.8 |
| 20260505003515 | 62 | 200 | 0.9 | 3.5 | 0.00 | 0.00 | 0.00 | 51 | 1004.7 |
| 20260505003322 | 62 | 178 | 0.9 | 3.5 | 0.00 | 0.00 | 0.00 | 49 | 1004.7 |
| 20260505003245 | 62 | 178 | 1.7 | 4.3 | 0.00 | 0.00 | 0.00 | 48 | 1004.7 |
| 20260505003129 | 62 | 194 | 1.7 | 4.3 | 0.00 | 0.00 | 0.00 | 50 | 1004.7 |
| 20260505003053 | 62 | 186 | 1.7 | 4.3 | 0.00 | 0.00 | 0.00 | 48 | 1004.7 |
| 20260505003016 | 63 | 137 | 1.7 | 4.3 | 0.00 | 0.00 | 0.00 | 49 | 1004.6 |
| 20260505002920 | 63 | 157 | 0.9 | 4.3 | 0.00 | 0.00 | 0.00 | 48 | 1004.7 |
| 20260505002841 | 63 | 163 | 1.7 | 4.3 | 0.00 | 0.00 | 0.00 | 48 | 1004.7 |
| 20260505002712 | 63 | 155 | 1.7 | 4.3 | 0.00 | 0.00 | 0.00 | 48 | 1004.7 |
| 20260505002626 | 63 | 144 | 2.6 | 4.3 | 0.00 | 0.00 | 0.00 | 47 | 1004.7 |
| 20260505002438 | 63 | 211 | 2.6 | 6.1 | 0.00 | 0.00 | 0.00 | 47 | 1004.6 |
| 20260505002338 | 63 | 185 | 1.7 | 6.1 | 0.00 | 0.00 | 0.00 | 48 | 1004.6 |
| 20260505002231 | 63 | 223 | 1.7 | 6.1 | 0.00 | 0.00 | 0.00 | 46 | 1004.6 |
| 20260505002153 | 63 | 220 | 1.7 | 6.1 | 0.00 | 0.00 | 0.00 | 46 | 1004.6 |
| 20260505002114 | 63 | 215 | 1.7 | 6.1 | 0.00 | 0.00 | 0.00 | 46 | 1004.6 |
| 20260505001947 | 63 | 193 | 1.7 | 6.1 | 0.00 | 0.00 | 0.00 | 46 | 1004.6 |
| 20260505001839 | 63 | 200 | 1.7 | 6.1 | 0.00 | 0.00 | 0.00 | 46 | 1004.6 |
| 20260505001741 | 64 | 204 | 2.6 | 6.1 | 0.00 | 0.00 | 0.00 | 46 | 1004.5 |
| 20260505001642 | 64 | 190 | 2.6 | 6.1 | 0.00 | 0.00 | 0.00 | 47 | 1004.5 |
| 20260505001541 | 64 | 188 | 1.7 | 4.3 | 0.00 | 0.00 | 0.00 | 46 | 1004.5 |
| 20260505001427 | 64 | 150 | 1.7 | 4.3 | 0.00 | 0.00 | 0.00 | 46 | 1004.5 |
| 20260505001351 | 64 | 206 | 2.6 | 4.3 | 0.00 | 0.00 | 0.00 | 46 | 1004.5 |
| 20260505001312 | 64 | 200 | 2.6 | 4.3 | 0.00 | 0.00 | 0.00 | 46 | 1004.5 |
| 20260505001151 | 64 | 200 | 1.7 | 4.3 | 0.00 | 0.00 | 0.00 | 46 | 1004.5 |
| 20260505001054 | 64 | 196 | 1.7 | 3.5 | 0.00 | 0.00 | 0.00 | 46 | 1004.5 |
| 20260505001016 | 64 | 177 | 1.7 | 5.2 | 0.00 | 0.00 | 0.00 | 47 | 1004.5 |
| 20260505000921 | 64 | 170 | 1.7 | 5.2 | 0.00 | 0.00 | 0.00 | 45 | 1004.4 |
| 20260505000729 | 65 | 168 | 1.7 | 5.2 | 0.00 | 0.00 | 0.00 | 45 | 1004.4 |
| 20260505000623 | 65 | 178 | 0.9 | 5.2 | 0.00 | 0.00 | 0.00 | 44 | 1004.4 |
| 20260505000547 | 65 | 146 | 0.9 | 5.2 | 0.00 | 0.00 | 0.00 | 44 | 1004.4 |
| 20260505000444 | 65 | 185 | 1.7 | 5.2 | 0.00 | 0.00 | 0.00 | 44 | 1004.4 |
| 20260505000406 | 65 | 185 | 1.7 | 5.2 | 0.00 | 0.00 | 0.00 | 44 | 1004.4 |
| 20260505000326 | 65 | 153 | 2.6 | 5.2 | 0.00 | 0.00 | 0.00 | 44 | 1004.4 |
| 20260505000211 | 65 | 193 | 3.5 | 5.2 | 0.00 | 0.00 | 0.00 | 44 | 1004.4 |
| 20260505000130 | 65 | 202 | 3.5 | 5.2 | 0.00 | 0.00 | 0.00 | 44 | 1004.4 |
| 20260504235934 | 65 | 190 | 1.7 | 7.8 | 0.00 | 0.00 | 0.00 | 44 | 1004.3 |
| 20260504235835 | 65 | 198 | 2.6 | 8.7 | 0.00 | 0.00 | 0.00 | 43 | 1004.3 |
| 20260504235737 | 65 | 190 | 3.5 | 8.7 | 0.00 | 0.00 | 0.00 | 43 | 1004.3 |
| 20260504235659 | 65 | 172 | 3.5 | 8.7 | 0.00 | 0.00 | 0.00 | 43 | 1004.3 |
| 20260504235621 | 66 | 146 | 3.5 | 8.7 | 0.00 | 0.00 | 0.00 | 43 | 1004.3 |
| 20260504235428 | 66 | 221 | 3.5 | 8.7 | 0.00 | 0.00 | 0.00 | 43 | 1004.3 |
| 20260504235353 | 66 | 187 | 4.3 | 8.7 | 0.00 | 0.00 | 0.00 | 43 | 1004.3 |
| 20260504235259 | 66 | 121 | 5.2 | 8.7 | 0.00 | 0.00 | 0.00 | 43 | 1004.2 |
| 20260504235220 | 66 | 175 | 6.1 | 8.7 | 0.00 | 0.00 | 0.00 | 42 | 1004.3 |
| 20260504235024 | 65 | 199 | 3.5 | 7.8 | 0.00 | 0.00 | 0.00 | 43 | 1004.2 |
| 20260504234925 | 66 | 197 | 2.6 | 7.0 | 0.00 | 0.00 | 0.00 | 43 | 1004.2 |
| 20260504234830 | 66 | 187 | 2.6 | 7.0 | 0.00 | 0.00 | 0.00 | 43 | 1004.3 |
| 20260504234727 | 66 | 167 | 2.6 | 7.0 | 0.00 | 0.00 | 0.00 | 43 | 1004.3 |
| 20260504234537 | 66 | 236 | 1.7 | 7.8 | 0.00 | 0.00 | 0.00 | 43 | 1004.3 |
| 20260504234437 | 66 | 257 | 2.6 | 7.8 | 0.00 | 0.00 | 0.00 | 44 | 1004.3 |
| 20260504234313 | 66 | 174 | 3.5 | 7.8 | 0.00 | 0.00 | 0.00 | 43 | 1004.3 |
| 20260504234246 | 66 | 173 | 4.3 | 7.8 | 0.00 | 0.00 | 0.00 | 42 | 1004.3 |
| 20260504234127 | 66 | 158 | 3.5 | 7.8 | 0.00 | 0.00 | 0.00 | 43 | 1004.2 |
| 20260504234051 | 66 | 186 | 2.6 | 7.8 | 0.00 | 0.00 | 0.00 | 43 | 1004.2 |
| 20260504234014 | 66 | 154 | 2.6 | 7.8 | 0.00 | 0.00 | 0.00 | 42 | 1004.2 |
| 20260504233915 | 66 | 201 | 3.5 | 7.8 | 0.00 | 0.00 | 0.00 | 42 | 1004.2 |
| 20260504233837 | 66 | 195 | 4.3 | 7.8 | 0.00 | 0.00 | 0.00 | 43 | 1004.2 |
| 20260504233706 | 66 | 196 | 4.3 | 7.0 | 0.00 | 0.00 | 0.00 | 42 | 1004.1 |
| 20260504233620 | 66 | 186 | 3.5 | 7.0 | 0.00 | 0.00 | 0.00 | 42 | 1004.1 |
| 20260504233407 | 66 | 236 | 2.6 | 6.1 | 0.00 | 0.00 | 0.00 | 43 | 1004.1 |
| 20260504233238 | 66 | 182 | 2.6 | 6.1 | 0.00 | 0.00 | 0.00 | 42 | 1004.0 |
| 20260504233131 | 66 | 191 | 3.5 | 6.1 | 0.00 | 0.00 | 0.00 | 42 | 1004.0 |
| 20260504232942 | 66 | 184 | 3.5 | 6.1 | 0.00 | 0.00 | 0.00 | 42 | 1004.0 |
| 20260504232838 | 66 | 221 | 3.5 | 6.1 | 0.00 | 0.00 | 0.00 | 42 | 1004.0 |
| 20260504232721 | 66 | 207 | 3.5 | 5.2 | 0.00 | 0.00 | 0.00 | 42 | 1003.9 |
| 20260504232644 | 66 | 184 | 2.6 | 5.2 | 0.00 | 0.00 | 0.00 | 43 | 1003.9 |
| 20260504232608 | 66 | 183 | 1.7 | 8.7 | 0.00 | 0.00 | 0.00 | 42 | 1004.0 |
| 20260504232430 | 67 | 221 | 1.7 | 8.7 | 0.00 | 0.00 | 0.00 | 42 | 1003.8 |
| 20260504232356 | 67 | 221 | 2.6 | 8.7 | 0.00 | 0.00 | 0.00 | 42 | 1003.8 |
| 20260504232208 | 67 | 188 | 2.6 | 8.7 | 0.00 | 0.00 | 0.00 | 42 | 1003.8 |
| 20260504232016 | 67 | 221 | 3.5 | 8.7 | 0.00 | 0.00 | 0.00 | 41 | 1003.8 |
| 20260504231938 | 67 | 223 | 3.5 | 8.7 | 0.00 | 0.00 | 0.00 | 41 | 1003.7 |
| 20260504231809 | 67 | 213 | 4.3 | 8.7 | 0.00 | 0.00 | 0.00 | 41 | 1003.8 |
| 20260504231623 | 67 | 208 | 3.5 | 7.0 | 0.00 | 0.00 | 0.00 | 41 | 1003.7 |
| 20260504231525 | 67 | 229 | 3.5 | 7.0 | 0.00 | 0.00 | 0.00 | 41 | 1003.8 |
| 20260504231446 | 67 | 205 | 2.6 | 7.0 | 0.00 | 0.00 | 0.00 | 41 | 1003.8 |
| 20260504231350 | 67 | 236 | 2.6 | 7.0 | 0.00 | 0.00 | 0.00 | 41 | 1003.8 |
| 20260504231232 | 67 | 212 | 2.6 | 7.0 | 0.00 | 0.00 | 0.00 | 41 | 1003.8 |
| 20260504231148 | 67 | 178 | 2.6 | 7.0 | 0.00 | 0.00 | 0.00 | 41 | 1003.8 |
| 20260504231031 | 67 | 190 | 4.3 | 7.0 | 0.00 | 0.00 | 0.00 | 41 | 1003.7 |
| 20260504230955 | 67 | 169 | 4.3 | 7.0 | 0.00 | 0.00 | 0.00 | 42 | 1003.7 |
| 20260504230911 | 67 | 190 | 3.5 | 7.0 | 0.00 | 0.00 | 0.00 | 41 | 1003.8 |
| 20260504230631 | 67 | 193 | 3.5 | 7.0 | 0.00 | 0.00 | 0.00 | 41 | 1003.7 |
| 20260504230525 | 67 | 186 | 2.6 | 7.0 | 0.00 | 0.00 | 0.00 | 41 | 1003.7 |
| 20260504230448 | 67 | 186 | 1.7 | 7.0 | 0.00 | 0.00 | 0.00 | 41 | 1003.7 |
| 20260504230406 | 67 | 222 | 0.9 | 7.0 | 0.00 | 0.00 | 0.00 | 41 | 1003.7 |
| 20260504230337 | 67 | 240 | 1.7 | 7.0 | 0.00 | 0.00 | 0.00 | 41 | 1003.7 |
| 20260504230131 | 67 | 207 | 2.6 | 7.0 | 0.00 | 0.00 | 0.00 | 41 | 1003.7 |
| 20260504230025 | 67 | 158 | 2.6 | 7.0 | 0.00 | 0.00 | 0.00 | 40 | 1003.7 |
| 20260504225959 | 68 | 195 | 2.6 | 7.0 | 0.00 | 0.00 | 0.00 | 40 | 1003.7 |
| 20260504225824 | 68 | 207 | 3.5 | 7.0 | 0.00 | 0.00 | 0.00 | 40 | 1003.6 |
| 20260504225740 | 68 | 241 | 1.7 | 7.0 | 0.00 | 0.00 | 0.00 | 41 | 1003.6 |
| 20260504225641 | 68 | 191 | 1.7 | 7.0 | 0.00 | 0.00 | 0.00 | 41 | 1003.6 |
| 20260504225546 | 68 | 222 | 2.6 | 7.0 | 0.00 | 0.00 | 0.00 | 41 | 1003.6 |
| 20260504225507 | 68 | 205 | 3.5 | 7.0 | 0.00 | 0.00 | 0.00 | 41 | 1003.5 |
| 20260504225430 | 68 | 177 | 3.5 | 7.0 | 0.00 | 0.00 | 0.00 | 40 | 1003.5 |
| 20260504225316 | 68 | 169 | 3.5 | 7.8 | 0.00 | 0.00 | 0.00 | 40 | 1003.6 |
| 20260504225237 | 68 | 195 | 2.6 | 6.1 | 0.00 | 0.00 | 0.00 | 40 | 1003.6 |
| 20260504225108 | 68 | 202 | 2.6 | 6.1 | 0.00 | 0.00 | 0.00 | 40 | 1003.5 |
| 20260504225004 | 68 | 184 | 2.6 | 7.0 | 0.00 | 0.00 | 0.00 | 40 | 1003.5 |
| 20260504224835 | 68 | 263 | 3.5 | 9.6 | 0.00 | 0.00 | 0.00 | 39 | 1003.4 |
| 20260504224734 | 68 | 263 | 4.3 | 9.6 | 0.00 | 0.00 | 0.00 | 39 | 1003.5 |
| 20260504224536 | 68 | 175 | 4.3 | 9.6 | 0.00 | 0.00 | 0.00 | 39 | 1003.5 |
| 20260504224458 | 68 | 221 | 3.5 | 9.6 | 0.00 | 0.00 | 0.00 | 39 | 1003.5 |
| 20260504224401 | 68 | 244 | 3.5 | 9.6 | 0.00 | 0.00 | 0.00 | 39 | 1003.4 |
| 20260504224244 | 68 | 193 | 5.2 | 9.6 | 0.00 | 0.00 | 0.00 | 39 | 1003.4 |
| 20260504224131 | 69 | 197 | 6.1 | 9.6 | 0.00 | 0.00 | 0.00 | 39 | 1003.3 |
| 20260504224055 | 69 | 190 | 5.2 | 9.6 | 0.00 | 0.00 | 0.00 | 39 | 1003.3 |
| 20260504224016 | 69 | 191 | 3.5 | 9.6 | 0.00 | 0.00 | 0.00 | 39 | 1003.4 |
| 20260504223920 | 69 | 157 | 4.3 | 9.6 | 0.00 | 0.00 | 0.00 | 39 | 1003.3 |
| 20260504223820 | 69 | 229 | 6.1 | 9.6 | 0.00 | 0.00 | 0.00 | 39 | 1003.3 |
| 20260504223653 | 69 | 178 | 6.1 | 10.4 | 0.00 | 0.00 | 0.00 | 39 | 1003.4 |
| 20260504223545 | 69 | 207 | 6.1 | 9.6 | 0.00 | 0.00 | 0.00 | 39 | 1003.4 |
| 20260504223415 | 69 | 170 | 4.3 | 10.4 | 0.00 | 0.00 | 0.00 | 38 | 1003.4 |
| 20260504223338 | 69 | 197 | 4.3 | 9.6 | 0.00 | 0.00 | 0.00 | 38 | 1003.3 |
| 20260504223121 | 69 | 198 | 6.1 | 9.6 | 0.00 | 0.00 | 0.00 | 38 | 1003.3 |
| 20260504223046 | 69 | 206 | 5.2 | 9.6 | 0.00 | 0.00 | 0.00 | 39 | 1003.3 |
| 20260504222932 | 69 | 255 | 4.3 | 11.3 | 0.00 | 0.00 | 0.00 | 39 | 1003.4 |
| 20260504222856 | 69 | 180 | 4.3 | 11.3 | 0.00 | 0.00 | 0.00 | 39 | 1003.3 |
| 20260504222739 | 69 | 230 | 4.3 | 11.3 | 0.00 | 0.00 | 0.00 | 39 | 1003.4 |
| 20260504222700 | 69 | 144 | 4.3 | 11.3 | 0.00 | 0.00 | 0.00 | 40 | 1003.4 |
| 20260504222621 | 69 | 209 | 5.2 | 11.3 | 0.00 | 0.00 | 0.00 | 39 | 1003.4 |
| 20260504222425 | 69 | 257 | 4.3 | 8.7 | 0.00 | 0.00 | 0.00 | 40 | 1003.4 |
| 20260504222349 | 69 | 206 | 3.5 | 8.7 | 0.00 | 0.00 | 0.00 | 39 | 1003.4 |
| 20260504222234 | 69 | 181 | 3.5 | 8.7 | 0.00 | 0.00 | 0.00 | 39 | 1003.4 |
| 20260504222128 | 69 | 188 | 4.3 | 8.7 | 0.00 | 0.00 | 0.00 | 40 | 1003.4 |
| 20260504222055 | 69 | 187 | 4.3 | 8.7 | 0.00 | 0.00 | 0.00 | 39 | 1003.4 |
| 20260504222017 | 69 | 174 | 5.2 | 9.6 | 0.00 | 0.00 | 0.00 | 39 | 1003.4 |
| 20260504221918 | 69 | 194 | 5.2 | 9.6 | 0.00 | 0.00 | 0.00 | 40 | 1003.3 |
| 20260504221800 | 69 | 159 | 5.2 | 9.6 | 0.00 | 0.00 | 0.00 | 39 | 1003.4 |
| 20260504221700 | 69 | 211 | 4.3 | 9.6 | 0.00 | 0.00 | 0.00 | 40 | 1003.4 |
| 20260504221621 | 69 | 197 | 4.3 | 9.6 | 0.00 | 0.00 | 0.00 | 39 | 1003.4 |
| 20260504221426 | 69 | 205 | 3.5 | 9.6 | 0.00 | 0.00 | 0.00 | 39 | 1003.4 |
| 20260504221341 | 69 | 198 | 4.3 | 9.6 | 0.00 | 0.00 | 0.00 | 39 | 1003.4 |
| 20260504221131 | 69 | 193 | 4.3 | 10.4 | 0.00 | 0.00 | 0.00 | 39 | 1003.3 |
| 20260504221029 | 69 | 229 | 4.3 | 9.6 | 0.00 | 0.00 | 0.00 | 40 | 1003.3 |
| 20260504220953 | 69 | 159 | 4.3 | 9.6 | 0.00 | 0.00 | 0.00 | 39 | 1003.3 |
| 20260504220859 | 68 | 191 | 4.3 | 9.6 | 0.00 | 0.00 | 0.00 | 40 | 1003.4 |
| 20260504220740 | 68 | 193 | 6.1 | 11.3 | 0.00 | 0.00 | 0.00 | 39 | 1003.4 |
| 20260504220624 | 68 | 178 | 6.1 | 11.3 | 0.00 | 0.00 | 0.00 | 39 | 1003.4 |
| 20260504220548 | 68 | 213 | 5.2 | 11.3 | 0.00 | 0.00 | 0.00 | 40 | 1003.4 |
| 20260504220425 | 68 | 159 | 3.5 | 11.3 | 0.00 | 0.00 | 0.00 | 41 | 1003.5 |
| 20260504220330 | 68 | 192 | 5.2 | 11.3 | 0.00 | 0.00 | 0.00 | 40 | 1003.4 |
| 20260504220251 | 68 | 198 | 6.1 | 11.3 | 0.00 | 0.00 | 0.00 | 39 | 1003.4 |
| 20260504220125 | 68 | 232 | 7.0 | 11.3 | 0.00 | 0.00 | 0.00 | 39 | 1003.4 |
| 20260504215934 | 68 | 196 | 7.0 | 8.7 | 0.00 | 0.00 | 0.00 | 39 | 1003.5 |
| 20260504215827 | 68 | 165 | 6.1 | 13.0 | 0.00 | 0.00 | 0.00 | 40 | 1003.4 |
| 20260504215708 | 68 | 176 | 6.1 | 13.0 | 0.00 | 0.00 | 0.00 | 39 | 1003.4 |
| 20260504215629 | 68 | 179 | 6.1 | 13.0 | 0.00 | 0.00 | 0.00 | 39 | 1003.4 |
| 20260504215431 | 68 | 153 | 6.1 | 13.0 | 0.00 | 0.00 | 0.00 | 39 | 1003.4 |
| 20260504215355 | 68 | 177 | 7.0 | 13.0 | 0.00 | 0.00 | 0.00 | 39 | 1003.4 |
| 20260504215238 | 68 | 173 | 7.0 | 13.0 | 0.00 | 0.00 | 0.00 | 39 | 1003.4 |
| 20260504215148 | 68 | 136 | 7.8 | 13.0 | 0.00 | 0.00 | 0.00 | 39 | 1003.4 |
| 20260504215026 | 68 | 157 | 7.0 | 13.0 | 0.00 | 0.00 | 0.00 | 39 | 1003.3 |
| 20260504214930 | 68 | 141 | 5.2 | 10.4 | 0.00 | 0.00 | 0.00 | 39 | 1003.4 |
| 20260504214852 | 68 | 188 | 7.0 | 10.4 | 0.00 | 0.00 | 0.00 | 39 | 1003.4 |
| 20260504214814 | 68 | 161 | 7.0 | 10.4 | 0.00 | 0.00 | 0.00 | 39 | 1003.4 |
| 20260504214719 | 68 | 185 | 7.0 | 10.4 | 0.00 | 0.00 | 0.00 | 39 | 1003.4 |
| 20260504214640 | 68 | 221 | 7.0 | 11.3 | 0.00 | 0.00 | 0.00 | 39 | 1003.4 |
| 20260504214512 | 68 | 245 | 7.8 | 13.0 | 0.00 | 0.00 | 0.00 | 39 | 1003.4 |
| 20260504214427 | 68 | 200 | 7.0 | 13.9 | 0.00 | 0.00 | 0.00 | 39 | 1003.4 |
| 20260504214225 | 69 | 134 | 7.0 | 13.0 | 0.00 | 0.00 | 0.00 | 39 | 1003.4 |
| 20260504214037 | 69 | 185 | 4.3 | 13.0 | 0.00 | 0.00 | 0.00 | 40 | 1003.4 |
| 20260504213931 | 69 | 209 | 5.2 | 13.0 | 0.00 | 0.00 | 0.00 | 39 | 1003.4 |
| 20260504213859 | 69 | 238 | 6.1 | 13.0 | 0.00 | 0.00 | 0.00 | 39 | 1003.4 |
| 20260504213724 | 69 | 208 | 7.0 | 13.0 | 0.00 | 0.00 | 0.00 | 39 | 1003.3 |
| 20260504213640 | 69 | 166 | 6.1 | 13.9 | 0.00 | 0.00 | 0.00 | 38 | 1003.3 |
| 20260504213509 | 69 | 152 | 6.1 | 15.6 | 0.00 | 0.00 | 0.00 | 38 | 1003.6 |
| 20260504213432 | 69 | 195 | 7.0 | 15.6 | 0.00 | 0.00 | 0.00 | 38 | 1003.4 |
| 20260504213234 | 69 | 172 | 7.8 | 15.6 | 0.00 | 0.00 | 0.00 | 38 | 1003.2 |
| 20260504213156 | 69 | 203 | 7.8 | 15.6 | 0.00 | 0.00 | 0.00 | 38 | 1003.2 |
| 20260504213100 | 69 | 163 | 8.7 | 15.6 | 0.00 | 0.00 | 0.00 | 37 | 1003.3 |
| 20260504212942 | 69 | 188 | 7.8 | 15.6 | 0.00 | 0.00 | 0.00 | 38 | 1003.3 |
| 20260504212830 | 69 | 160 | 7.8 | 15.6 | 0.00 | 0.00 | 0.00 | 37 | 1003.3 |
| 20260504212752 | 69 | 153 | 7.0 | 15.6 | 0.00 | 0.00 | 0.00 | 37 | 1003.3 |
| 20260504212708 | 70 | 114 | 6.1 | 13.0 | 0.00 | 0.00 | 0.00 | 38 | 1003.3 |
| 20260504212516 | 70 | 195 | 7.8 | 13.0 | 0.00 | 0.00 | 0.00 | 38 | 1003.3 |
| 20260504212438 | 70 | 168 | 7.0 | 13.0 | 0.00 | 0.00 | 0.00 | 38 | 1003.2 |
| 20260504212301 | 70 | 172 | 7.8 | 13.0 | 0.00 | 0.00 | 0.00 | 39 | 1003.2 |
| 20260504212222 | 70 | 169 | 7.8 | 13.0 | 0.00 | 0.00 | 0.00 | 39 | 1003.4 |
| 20260504212034 | 70 | 142 | 6.1 | 19.1 | 0.00 | 0.00 | 0.00 | 39 | 1003.3 |
| 20260504211927 | 70 | 222 | 4.3 | 19.1 | 0.00 | 0.00 | 0.00 | 40 | 1003.3 |
| 20260504211851 | 69 | 172 | 4.3 | 19.1 | 0.00 | 0.00 | 0.00 | 40 | 1003.3 |
| 20260504211738 | 69 | 187 | 4.3 | 19.1 | 0.00 | 0.00 | 0.00 | 39 | 1003.2 |
| 20260504211700 | 69 | 169 | 4.3 | 19.1 | 0.00 | 0.00 | 0.00 | 40 | 1003.2 |
| 20260504211615 | 69 | 199 | 4.3 | 19.1 | 0.00 | 0.00 | 0.00 | 39 | 1003.2 |
| 20260504211427 | 69 | 224 | 7.8 | 19.1 | 0.00 | 0.00 | 0.00 | 40 | 1003.2 |
| 20260504211344 | 69 | 211 | 11.3 | 19.1 | 0.00 | 0.00 | 0.00 | 39 | 1003.2 |
| 20260504211213 | 69 | 136 | 7.8 | 19.1 | 0.00 | 0.00 | 0.00 | 39 | 1003.3 |
| 20260504211135 | 69 | 183 | 6.1 | 12.2 | 0.00 | 0.00 | 0.00 | 39 | 1003.2 |
| 20260504210938 | 69 | 157 | 6.1 | 13.9 | 0.00 | 0.00 | 0.00 | 39 | 1003.0 |
| 20260504210841 | 69 | 167 | 7.0 | 13.9 | 0.00 | 0.00 | 0.00 | 39 | 1003.2 |
| 20260504210725 | 69 | 161 | 6.1 | 13.9 | 0.00 | 0.00 | 0.00 | 39 | 1003.2 |
| 20260504210650 | 69 | 213 | 4.3 | 13.9 | 0.00 | 0.00 | 0.00 | 39 | 1003.2 |
| 20260504210610 | 69 | 200 | 5.2 | 13.9 | 0.00 | 0.00 | 0.00 | 40 | 1003.2 |
| 20260504210515 | 69 | 186 | 4.3 | 13.9 | 0.00 | 0.00 | 0.00 | 39 | 1003.2 |
| 20260504210437 | 69 | 214 | 6.1 | 13.9 | 0.00 | 0.00 | 0.00 | 39 | 1003.2 |
| 20260504210231 | 69 | 174 | 6.1 | 13.0 | 0.00 | 0.00 | 0.00 | 39 | 1003.3 |
| 20260504210132 | 69 | 188 | 5.2 | 13.0 | 0.00 | 0.00 | 0.00 | 39 | 1003.2 |
| 20260504210036 | 69 | 238 | 5.2 | 13.0 | 0.00 | 0.00 | 0.00 | 40 | 1003.2 |
| 20260504205939 | 69 | 198 | 7.0 | 13.0 | 0.00 | 0.00 | 0.00 | 40 | 1003.3 |
| 20260504205629 | 69 | 263 | 7.0 | 13.0 | 0.00 | 0.00 | 0.00 | 39 | 1003.4 |
| 20260504205535 | 69 | 193 | 7.0 | 11.3 | 0.00 | 0.00 | 0.00 | 40 | 1003.3 |
| 20260504205448 | 69 | 232 | 5.2 | 11.3 | 0.00 | 0.00 | 0.00 | 40 | 1003.2 |
| 20260504205349 | 69 | 142 | 5.2 | 11.3 | 0.00 | 0.00 | 0.00 | 41 | 1003.2 |
| 20260504205310 | 69 | 205 | 7.0 | 11.3 | 0.00 | 0.00 | 0.00 | 41 | 1003.2 |
| 20260504205112 | 69 | 255 | 5.2 | 12.2 | 0.00 | 0.00 | 0.00 | 40 | 1003.3 |
| 20260504205035 | 69 | 174 | 5.2 | 11.3 | 0.00 | 0.00 | 0.00 | 43 | 1003.2 |
| 20260504204905 | 69 | 192 | 6.1 | 13.0 | 0.00 | 0.00 | 0.00 | 40 | 1003.2 |
| 20260504204827 | 69 | 172 | 6.1 | 13.0 | 0.00 | 0.00 | 0.00 | 40 | 1003.2 |
| 20260504204629 | 69 | 171 | 6.1 | 13.0 | 0.00 | 0.00 | 0.00 | 41 | 1003.2 |
| 20260504204550 | 69 | 187 | 5.2 | 13.0 | 0.00 | 0.00 | 0.00 | 41 | 1003.2 |
| 20260504204438 | 69 | 184 | 5.2 | 13.0 | 0.00 | 0.00 | 0.00 | 41 | 1003.2 |
| 20260504204402 | 69 | 177 | 7.0 | 13.0 | 0.00 | 0.00 | 0.00 | 41 | 1003.2 |
| 20260504204223 | 69 | 169 | 8.7 | 13.0 | 0.00 | 0.00 | 0.00 | 41 | 1003.2 |
| 20260504204147 | 69 | 140 | 9.6 | 13.0 | 0.00 | 0.00 | 0.00 | 40 | 1003.2 |
| 20260504204023 | 69 | 126 | 7.0 | 13.0 | 0.00 | 0.00 | 0.00 | 41 | 1003.2 |
| 20260504203927 | 69 | 173 | 6.1 | 13.0 | 0.00 | 0.00 | 0.00 | 43 | 1003.1 |
| 20260504203851 | 69 | 163 | 6.1 | 13.0 | 0.00 | 0.00 | 0.00 | 42 | 1003.1 |
| 20260504203812 | 69 | 153 | 7.8 | 13.0 | 0.00 | 0.00 | 0.00 | 42 | 1003.1 |
| 20260504203716 | 69 | 151 | 8.7 | 13.0 | 0.00 | 0.00 | 0.00 | 41 | 1003.1 |
| 20260504203638 | 69 | 153 | 7.8 | 11.3 | 0.00 | 0.00 | 0.00 | 41 | 1003.2 |
| 20260504203513 | 68 | 164 | 4.3 | 10.4 | 0.00 | 0.00 | 0.00 | 43 | 1003.1 |
| 20260504203415 | 68 | 155 | 3.5 | 10.4 | 0.00 | 0.00 | 0.00 | 44 | 1003.2 |
| 20260504203238 | 68 | 177 | 5.2 | 10.4 | 0.00 | 0.00 | 0.00 | 43 | 1003.3 |
| 20260504203201 | 68 | 183 | 7.0 | 10.4 | 0.00 | 0.00 | 0.00 | 45 | 1003.3 |
| 20260504202944 | 68 | 171 | 7.0 | 10.4 | 0.00 | 0.00 | 0.00 | 44 | 1003.3 |
| 20260504202907 | 68 | 178 | 7.0 | 10.4 | 0.00 | 0.00 | 0.00 | 43 | 1003.3 |
| 20260504202812 | 67 | 138 | 7.0 | 10.4 | 0.00 | 0.00 | 0.00 | 44 | 1003.3 |
| 20260504202735 | 67 | 136 | 7.0 | 10.4 | 0.00 | 0.00 | 0.00 | 44 | 1003.3 |
| 20260504202604 | 67 | 163 | 7.0 | 10.4 | 0.00 | 0.00 | 0.00 | 45 | 1003.4 |
| 20260504202516 | 67 | 192 | 6.1 | 10.4 | 0.00 | 0.00 | 0.00 | 45 | 1003.4 |
| 20260504202346 | 67 | 190 | 5.2 | 10.4 | 0.00 | 0.00 | 0.00 | 45 | 1003.4 |
| 20260504202252 | 67 | 148 | 4.3 | 13.0 | 0.00 | 0.00 | 0.00 | 45 | 1003.4 |
| 20260504202153 | 67 | 164 | 5.2 | 13.0 | 0.00 | 0.00 | 0.00 | 44 | 1003.4 |
| 20260504202035 | 67 | 155 | 6.1 | 13.0 | 0.00 | 0.00 | 0.00 | 43 | 1003.5 |
| 20260504201959 | 67 | 175 | 7.0 | 13.0 | 0.00 | 0.00 | 0.00 | 43 | 1003.5 |
| 20260504201915 | 67 | 191 | 7.0 | 13.0 | 0.00 | 0.00 | 0.00 | 43 | 1003.5 |
| 20260504201725 | 67 | 173 | 4.3 | 13.0 | 0.00 | 0.00 | 0.00 | 44 | 1003.5 |
| 20260504201638 | 67 | 142 | 4.3 | 13.0 | 0.00 | 0.00 | 0.00 | 43 | 1003.6 |
| 20260504201510 | 67 | 144 | 7.8 | 13.0 | 0.00 | 0.00 | 0.00 | 43 | 1003.5 |
| 20260504201432 | 67 | 173 | 7.8 | 12.2 | 0.00 | 0.00 | 0.00 | 44 | 1003.6 |
| 20260504201233 | 67 | 183 | 5.2 | 12.2 | 0.00 | 0.00 | 0.00 | 44 | 1003.6 |
| 20260504201159 | 67 | 165 | 4.3 | 12.2 | 0.00 | 0.00 | 0.00 | 44 | 1003.6 |
| 20260504201041 | 67 | 206 | 6.1 | 12.2 | 0.00 | 0.00 | 0.00 | 43 | 1003.7 |
| 20260504201004 | 67 | 155 | 7.0 | 12.2 | 0.00 | 0.00 | 0.00 | 43 | 1003.7 |
| 20260504200918 | 67 | 243 | 7.0 | 12.2 | 0.00 | 0.00 | 0.00 | 43 | 1003.8 |
| 20260504200729 | 67 | 192 | 6.1 | 13.9 | 0.00 | 0.00 | 0.00 | 43 | 1003.7 |
| 20260504200623 | 67 | 229 | 5.2 | 13.9 | 0.00 | 0.00 | 0.00 | 44 | 1003.8 |
| 20260504200545 | 67 | 227 | 5.2 | 13.9 | 0.00 | 0.00 | 0.00 | 44 | 1003.8 |
| 20260504200500 | 67 | 234 | 6.1 | 13.9 | 0.00 | 0.00 | 0.00 | 43 | 1003.7 |
| 20260504200422 | 67 | 148 | 6.1 | 13.9 | 0.00 | 0.00 | 0.00 | 43 | 1003.7 |
| 20260504200237 | 67 | 157 | 5.2 | 13.9 | 0.00 | 0.00 | 0.00 | 44 | 1003.7 |
| 20260504200131 | 67 | 160 | 6.1 | 13.0 | 0.00 | 0.00 | 0.00 | 43 | 1003.7 |
| 20260504200053 | 68 | 171 | 7.0 | 13.0 | 0.00 | 0.00 | 0.00 | 43 | 1003.7 |
| 20260504195959 | 68 | 140 | 7.8 | 13.0 | 0.00 | 0.00 | 0.00 | 42 | 1003.8 |
| 20260504195838 | 68 | 182 | 6.1 | 13.0 | 0.00 | 0.00 | 0.00 | 43 | 1003.9 |
| 20260504195754 | 68 | 216 | 5.2 | 13.0 | 0.00 | 0.00 | 0.00 | 43 | 1003.9 |
| 20260504195723 | 68 | 155 | 6.1 | 13.0 | 0.00 | 0.00 | 0.00 | 43 | 1003.9 |
| 20260504195625 | 68 | 174 | 7.0 | 13.0 | 0.00 | 0.00 | 0.00 | 43 | 1003.8 |
| 20260504195428 | 68 | 131 | 9.6 | 13.0 | 0.00 | 0.00 | 0.00 | 42 | 1003.9 |
| 20260504195352 | 68 | 190 | 9.6 | 13.9 | 0.00 | 0.00 | 0.00 | 42 | 1003.9 |
| 20260504195239 | 68 | 139 | 8.7 | 13.9 | 0.00 | 0.00 | 0.00 | 44 | 1003.9 |
| 20260504195201 | 68 | 173 | 8.7 | 13.9 | 0.00 | 0.00 | 0.00 | 44 | 1003.9 |
| 20260504195115 | 68 | 205 | 8.7 | 13.9 | 0.00 | 0.00 | 0.00 | 43 | 1003.9 |
| 20260504194947 | 68 | 198 | 7.0 | 13.0 | 0.00 | 0.00 | 0.00 | 44 | 1003.9 |
| 20260504194728 | 67 | 165 | 5.2 | 20.9 | 0.00 | 0.00 | 0.00 | 44 | 1003.7 |
| 20260504194630 | 67 | 95 | 6.1 | 20.9 | 0.00 | 0.00 | 0.00 | 44 | 1003.7 |
| 20260504194533 | 67 | 215 | 9.6 | 20.9 | 0.00 | 0.00 | 0.00 | 43 | 1003.9 |
| 20260504194455 | 67 | 163 | 9.6 | 20.9 | 0.00 | 0.00 | 0.00 | 42 | 1003.9 |
| 20260504194418 | 67 | 120 | 8.7 | 20.9 | 0.00 | 0.00 | 0.00 | 42 | 1003.8 |
| 20260504194224 | 67 | 142 | 7.8 | 20.9 | 0.00 | 0.00 | 0.00 | 43 | 1003.9 |
| 20260504194127 | 67 | 146 | 10.4 | 20.9 | 0.00 | 0.00 | 0.00 | 44 | 1004.0 |
| 20260504194032 | 67 | 219 | 11.3 | 20.9 | 0.00 | 0.00 | 0.00 | 43 | 1003.9 |
| 20260504193954 | 67 | 145 | 9.6 | 19.1 | 0.00 | 0.00 | 0.00 | 44 | 1003.9 |
| 20260504193734 | 67 | 169 | 10.4 | 19.1 | 0.00 | 0.00 | 0.00 | 44 | 1004.0 |
| 20260504193637 | 67 | 159 | 7.8 | 19.1 | 0.00 | 0.00 | 0.00 | 44 | 1003.9 |
| 20260504193541 | 67 | 150 | 11.3 | 19.1 | 0.00 | 0.00 | 0.00 | 43 | 1003.9 |
| 20260504193441 | 67 | 167 | 11.3 | 20.0 | 0.00 | 0.00 | 0.00 | 42 | 1004.0 |
| 20260504193312 | 67 | 190 | 7.8 | 18.2 | 0.00 | 0.00 | 0.00 | 45 | 1004.0 |
| 20260504193228 | 67 | 171 | 7.0 | 18.2 | 0.00 | 0.00 | 0.00 | 44 | 1004.0 |
| 20260504193041 | 67 | 152 | 7.0 | 18.2 | 0.00 | 0.00 | 0.00 | 44 | 1004.0 |
| 20260504193004 | 67 | 150 | 6.1 | 18.2 | 0.00 | 0.00 | 0.00 | 44 | 1004.0 |
| 20260504192918 | 67 | 188 | 7.8 | 18.2 | 0.00 | 0.00 | 0.00 | 44 | 1004.1 |
| 20260504192729 | 67 | 133 | 8.7 | 18.2 | 0.00 | 0.00 | 0.00 | 44 | 1004.1 |
| 20260504192644 | 66 | 183 | 7.0 | 18.2 | 0.00 | 0.00 | 0.00 | 44 | 1004.1 |
| 20260504192515 | 66 | 174 | 7.8 | 13.9 | 0.00 | 0.00 | 0.00 | 44 | 1004.1 |
| 20260504192415 | 66 | 123 | 8.7 | 13.9 | 0.00 | 0.00 | 0.00 | 44 | 1004.1 |
| 20260504192239 | 66 | 184 | 7.8 | 13.9 | 0.00 | 0.00 | 0.00 | 44 | 1004.1 |
| 20260504192142 | 66 | 200 | 7.8 | 13.9 | 0.00 | 0.00 | 0.00 | 44 | 1004.1 |